GFSWCAN_925_thetae_078.txt.gz
Theta_e
299 295 297 298 299 301 301 301 301 301 300 306 304 305 305 304 302 299 295 297 299 299 296 295 295 301 304 306 311 308 309 309 310 311 311 310 310 308 309 307 309 311 312 312 310 313 310 303 305 309 306 302 303 303
296 294 297 298 299 300 301 301 301 300 300 307 304 304 304 304 302 299 297 296 297 298 296 293 293 294 294 296 303 303 306 307 308 310 308 307 308 306 308 310 304 310 309 309 309 309 303 302 304 302 302 304 302 302
292 294 297 298 300 300 300 301 300 299 302 306 305 304 304 304 304 300 297 298 298 298 297 298 297 295 295 295 295 306 304 303 304 301 307 307 310 306 310 309 307 305 302 307 307 305 304 303 301 300 300 301 300 300
290 295 297 298 299 300 299 300 299 298 303 305 305 305 304 304 304 304 297 297 299 300 305 299 295 296 295 296 296 297 299 298 300 302 306 308 309 302 307 305 306 306 304 307 307 305 302 302 301 301 299 298 298 297
290 295 297 298 299 299 300 300 298 299 303 305 305 305 305 304 304 304 298 297 298 301 303 299 295 295 295 296 296 297 298 301 303 307 308 308 302 302 299 301 305 303 307 308 309 304 304 302 299 299 299 298 297 296
292 295 297 298 299 298 300 299 300 300 300 304 304 303 303 303 303 301 301 297 297 298 303 304 295 296 295 295 296 296 295 297 299 303 301 298 296 300 305 306 304 301 300 300 303 298 298 297 296 296 297 296 295 294
291 295 297 298 298 299 299 302 303 303 301 304 303 303 298 299 299 298 299 297 296 297 301 301 300 296 293 295 296 297 295 296 299 298 299 299 299 299 302 305 301 297 298 297 296 298 299 297 299 296 295 294 293 292
290 295 297 298 298 299 302 303 305 303 303 303 303 302 300 300 298 297 296 296 295 295 297 300 300 298 294 298 300 295 298 297 297 297 296 298 297 297 302 302 297 297 297 297 296 294 295 294 294 294 293 292 292 291
290 295 297 298 298 300 303 302 301 302 303 301 302 301 300 299 297 296 295 295 294 295 301 298 304 305 295 296 297 298 296 302 295 299 298 297 299 301 301 298 297 297 299 299 295 294 294 295 294 293 291 290 289 289
290 295 297 298 298 299 303 303 303 302 301 299 298 297 298 295 296 296 295 296 296 294 294 300 294 300 297 297 298 299 296 299 302 299 296 299 301 299 297 296 295 296 296 296 295 294 293 292 292 291 290 289 288 288
291 296 298 298 298 299 302 302 301 300 298 297 296 296 295 296 295 293 297 297 295 296 295 294 295 297 294 300 300 297 298 296 302 299 300 301 301 299 295 295 294 295 295 294 292 291 292 291 290 290 289 288 288 287
291 296 298 298 298 298 302 302 299 299 297 297 296 295 295 293 293 295 294 292 294 298 293 296 295 296 294 294 298 296 299 296 302 295 298 301 301 296 294 295 294 295 294 292 290 290 290 289 289 288 288 288 287 286
291 297 298 299 298 298 301 302 300 298 297 296 293 293 293 293 293 295 295 295 294 294 293 294 297 295 293 294 295 296 298 299 295 297 299 299 295 294 294 293 292 291 292 291 290 289 288 288 287 287 287 286 285 285
291 296 298 299 298 299 301 301 300 297 296 296 294 292 295 294 294 296 297 297 293 294 294 295 294 296 295 297 295 297 296 296 295 296 300 299 295 294 293 292 291 291 290 289 289 288 287 286 286 285 285 285 284 285
292 296 298 299 298 299 301 299 298 297 295 296 293 295 294 293 290 288 287 291 291 293 293 294 293 294 295 295 295 295 295 296 296 300 299 295 292 292 292 291 291 291 290 289 287 286 285 284 284 284 284 284 283 283
294 297 298 299 298 299 300 299 297 297 293 290 287 290 289 290 291 290 289 291 290 293 291 293 293 294 296 296 295 296 296 298 301 295 294 291 291 291 291 290 290 289 288 288 287 286 286 285 285 284 283 283 283 282
296 298 298 299 298 299 299 297 296 295 296 294 292 288 291 290 291 291 289 291 290 293 297 293 292 296 291 294 294 293 297 299 295 291 289 291 291 290 289 288 287 287 287 287 285 285 284 283 282 282 283 283 282 281
296 296 298 299 299 299 295 296 295 295 296 291 293 292 290 290 291 290 289 289 292 292 290 293 290 293 295 295 296 295 292 288 287 290 289 289 288 288 288 288 287 287 286 284 284 283 283 282 283 283 281 281 281 281
295 296 298 299 299 298 295 294 292 295 294 287 288 288 290 290 289 288 289 289 288 287 287 288 290 294 294 292 295 291 290 291 292 289 287 286 286 286 286 286 285 284 284 284 283 283 282 282 281 281 281 280 281 281
295 297 298 299 298 295 295 294 291 292 289 290 287 288 289 289 287 288 288 288 288 288 289 289 292 292 291 291 290 290 290 289 289 289 287 286 284 284 284 284 285 284 283 282 282 283 282 281 280 279 279 280 279 278
295 297 298 299 297 295 295 290 288 287 286 289 286 288 288 285 287 288 289 286 287 288 291 290 290 288 286 286 286 288 288 290 291 291 290 287 283 283 282 283 283 283 283 282 282 281 281 280 279 278 278 277 277 276
297 297 299 296 290 289 292 288 288 286 286 286 287 288 289 289 289 287 285 288 288 293 289 289 287 287 287 287 287 288 289 288 287 288 287 285 283 283 282 283 282 282 281 280 280 280 279 277 277 277 276 276 275 275
297 296 292 290 290 290 291 287 290 286 289 288 285 287 287 288 286 280 290 289 291 287 285 285 284 283 284 282 285 286 286 286 285 285 286 284 284 284 284 282 282 280 280 279 279 277 276 276 276 275 274 274 274 274
295 293 294 292 291 291 288 288 289 289 286 287 288 289 285 287 281 286 290 289 288 283 284 283 284 284 283 284 285 285 284 286 284 283 284 283 283 281 282 281 280 280 280 279 277 276 275 274 274 274 273 273 273 274
295 292 292 291 289 289 290 289 289 289 288 288 288 285 284 282 290 289 289 292 286 285 286 284 286 288 289 287 284 284 284 285 285 284 282 284 282 279 278 279 279 279 278 278 276 275 274 274 274 273 273 272 274 274
298 293 292 290 289 291 289 290 289 287 286 285 287 283 283 288 291 294 290 291 286 287 286 286 287 286 286 286 287 284 284 285 285 285 282 283 284 282 280 280 279 277 278 277 276 275 274 274 273 273 273 272 273 271
292 290 290 289 289 288 288 287 287 287 286 285 285 284 288 293 294 292 286 285 287 287 288 288 289 290 290 284 285 286 287 285 286 286 286 284 283 282 282 280 277 279 278 277 276 275 274 274 274 273 273 273 272 271
292 289 290 287 284 284 286 287 288 289 290 287 289 290 294 296 296 289 285 280 280 286 288 288 288 289 286 284 285 284 283 283 283 282 281 280 280 280 280 280 280 279 277 276 275 275 275 275 274 274 273 272 272 272
288 285 288 282 279 284 287 289 291 290 289 289 296 292 292 288 283 281 279 279 281 283 284 282 280 284 283 282 282 283 283 281 280 280 281 280 276 278 278 278 278 277 276 276 275 275 275 275 274 274 273 273 273 273
285 280 281 281 285 288 284 280 280 278 282 284 285 284 283 282 278 278 278 278 281 284 286 285 279 282 280 280 277 277 280 281 283 283 281 279 280 281 279 278 277 277 276 276 275 275 275 275 274 274 273 273 273 272
281 280 279 279 280 276 276 278 279 283 280 280 282 286 286 282 278 277 278 280 281 281 281 281 282 282 283 280 281 279 278 280 282 284 284 284 283 281 279 278 277 277 276 276 276 275 275 274 274 273 273 272 272 272
283 281 280 279 278 280 278 281 281 279 279 283 283 281 281 285 287 281 278 279 280 282 283 283 283 283 282 283 283 284 284 283 283 284 283 282 281 279 278 277 277 276 276 276 275 275 274 274 273 273 272 272 272 272
278 275 275 279 281 281 281 283 284 281 281 283 282 281 283 287 290 282 278 279 282 283 283 283 283 283 284 284 284 285 285 284 283 282 281 280 280 278 277 277 277 276 276 275 275 274 274 273 273 272 272 271 271 271

GFSWCAN_925_thetae_081.txt.gz
Theta_e
304 301 291 298 299 300 301 301 301 300 306 305 305 305 304 302 300 301 298 299 304 305 299 299 299 305 307 310 312 311 311 312 312 312 312 311 311 310 310 309 310 312 313 313 312 314 312 306 307 310 308 305 306 306
304 301 291 298 298 300 300 301 301 299 306 304 304 304 303 303 299 300 301 298 299 303 300 296 296 296 296 298 306 308 310 311 311 311 311 310 310 309 310 311 307 311 311 311 310 311 307 307 308 305 305 306 305 305
304 301 292 298 298 299 300 301 300 299 306 305 304 304 304 304 304 300 300 299 302 303 301 301 300 297 296 296 296 308 309 307 308 305 310 310 311 309 310 310 310 308 306 309 309 309 307 306 305 304 303 304 303 303
304 299 292 297 298 299 299 300 299 299 305 306 305 304 304 304 304 304 299 298 302 305 309 302 297 298 296 297 297 298 301 302 304 306 310 310 310 306 309 308 308 308 307 309 309 308 306 305 304 304 302 301 301 300
304 297 292 297 298 299 299 300 299 299 305 305 305 305 305 304 304 304 299 298 298 304 308 304 298 297 297 298 299 300 302 304 307 310 311 310 306 306 305 305 308 306 308 309 308 307 306 305 302 302 302 301 300 299
304 296 292 297 298 299 299 299 300 300 301 304 304 304 304 304 304 302 304 298 297 300 307 308 299 299 298 298 299 299 299 302 304 307 308 304 300 304 308 308 307 306 305 304 306 301 302 300 299 299 301 299 297 297
303 295 293 296 298 298 299 300 302 302 301 304 303 302 299 300 301 301 302 299 297 298 305 306 306 298 296 298 300 301 300 301 303 304 304 304 303 303 307 307 305 302 303 301 300 300 301 300 301 298 298 296 295 294
303 293 292 297 298 298 301 302 303 303 302 303 303 300 299 299 298 299 296 296 296 299 302 307 306 301 297 302 304 299 302 302 301 302 300 302 300 301 305 305 301 299 299 300 300 298 298 298 297 297 296 295 294 292
303 292 294 298 297 299 303 303 304 302 303 303 303 301 300 300 300 298 295 295 294 298 307 304 309 309 298 300 301 301 300 305 300 303 302 300 303 305 305 304 301 300 300 301 298 297 297 297 297 296 294 292 291 291
303 291 294 298 298 300 303 301 302 303 302 302 299 300 302 297 297 296 297 299 300 299 298 303 300 304 301 301 302 303 301 304 306 303 299 301 304 304 301 298 298 299 299 299 298 297 295 295 294 293 292 291 290 290
302 291 295 298 298 300 303 303 302 301 298 298 299 300 296 296 297 297 301 302 301 301 299 299 300 300 297 304 305 301 305 302 305 304 302 305 304 302 299 299 298 298 298 298 296 295 295 294 293 291 291 290 290 289
302 291 296 298 298 299 303 302 300 298 298 298 298 296 296 297 298 299 303 297 297 303 296 298 298 299 297 297 302 299 303 299 305 299 302 304 306 300 298 297 297 298 297 295 293 292 291 291 290 290 290 289 289 288
302 291 296 298 298 299 303 302 299 299 297 296 296 298 300 297 299 299 301 302 299 297 296 297 298 297 295 297 299 299 301 302 297 300 303 305 300 297 297 297 296 297 296 294 292 291 290 289 289 289 289 288 287 287
301 290 296 298 298 298 301 301 299 297 296 300 300 299 301 300 299 302 301 302 297 297 297 299 297 299 297 299 298 300 299 297 300 300 302 305 299 297 296 296 295 295 293 292 292 290 289 288 287 287 286 286 286 286
300 290 295 298 298 298 299 301 299 297 296 300 297 301 300 299 295 295 292 294 294 296 297 297 297 298 298 298 298 298 297 299 300 305 308 302 297 296 295 294 295 294 293 292 290 288 287 286 286 286 286 285 285 285
297 293 297 298 299 298 301 301 297 297 295 295 295 296 293 295 297 294 294 295 294 296 295 297 298 298 300 300 298 299 300 302 306 302 300 295 294 295 295 294 293 292 292 291 289 289 288 287 286 286 284 284 284 283
295 296 296 298 298 299 299 297 297 296 297 296 297 294 296 295 299 296 294 294 294 296 300 299 298 300 295 298 298 299 301 306 303 296 294 295 294 294 293 292 290 289 289 289 288 287 286 285 283 283 284 284 283 282
295 294 296 298 299 299 296 297 296 296 299 297 298 297 293 294 295 294 292 292 295 296 295 298 294 296 300 301 302 301 298 294 292 293 293 292 292 292 291 290 289 288 289 287 286 285 283 283 284 285 283 283 282 283
295 295 297 299 299 298 296 295 294 298 298 294 293 292 293 293 292 292 293 292 292 291 293 292 295 299 300 298 301 301 296 294 293 292 291 290 290 290 289 288 288 287 286 284 284 286 285 283 283 282 282 282 282 282
295 294 297 299 298 296 296 295 293 296 296 295 291 293 294 294 292 291 292 292 292 293 294 293 295 297 295 296 295 296 294 293 291 291 290 289 288 287 287 286 286 286 285 283 283 284 284 283 282 281 280 280 280 279
294 294 299 298 298 297 297 295 294 295 294 293 292 292 293 288 290 291 292 291 293 295 295 295 294 294 289 289 288 290 291 292 293 293 292 290 286 287 285 285 285 285 285 285 284 283 283 282 281 280 279 278 278 278
293 295 299 297 294 292 294 293 295 291 291 291 291 292 292 292 292 291 291 291 294 296 295 295 292 290 290 289 289 289 291 291 290 291 290 288 285 285 285 284 284 285 284 284 283 283 281 279 279 279 278 277 276 276
294 296 292 292 294 292 295 290 293 290 292 290 290 293 293 293 293 288 292 293 295 294 293 290 288 286 289 286 286 287 289 289 289 288 288 288 286 286 285 284 285 285 283 281 281 280 279 277 277 277 276 275 275 275
294 293 295 294 296 295 289 290 292 291 290 291 291 293 292 293 284 288 292 297 294 289 288 287 286 286 285 285 287 288 287 288 287 286 286 286 285 284 285 283 282 282 282 281 279 278 277 276 276 275 275 274 275 275
295 295 294 294 292 290 290 290 291 293 292 291 291 293 289 285 290 292 293 297 295 290 290 287 287 289 290 290 289 288 286 287 287 286 284 286 284 281 281 280 280 280 280 279 278 277 276 275 275 275 274 274 275 275
298 296 295 294 291 292 291 291 291 292 292 291 291 290 286 289 291 294 296 297 295 293 290 288 289 289 289 290 290 288 285 286 287 287 284 284 284 284 283 281 280 279 279 279 278 277 276 275 275 274 275 274 274 273
299 295 292 291 291 291 291 291 291 292 290 290 289 287 288 292 295 296 295 292 296 293 292 290 290 291 291 289 289 289 287 286 287 287 286 284 285 284 284 283 282 282 280 279 278 277 276 275 275 275 274 274 273 272
294 291 290 290 291 291 290 291 291 292 293 291 289 288 290 294 298 297 294 286 286 286 289 289 290 290 291 289 286 285 283 284 284 284 283 282 282 281 282 282 282 281 280 279 277 276 276 275 275 275 274 274 273 273
291 291 291 289 287 288 289 291 292 293 292 291 294 296 295 295 291 287 283 281 282 286 286 286 283 286 284 283 283 283 283 282 282 283 284 283 279 278 279 280 279 279 278 277 276 275 275 275 275 275 274 274 274 273
289 291 290 289 288 290 290 289 292 287 286 289 289 289 289 286 282 280 280 280 283 286 287 287 282 284 283 282 280 279 281 283 286 286 286 285 283 282 280 279 279 278 277 276 276 275 276 275 274 274 274 273 273 273
286 285 285 288 289 286 282 281 282 284 284 285 285 289 293 287 281 279 279 280 283 284 285 282 283 284 284 283 283 282 280 281 284 285 285 285 284 283 281 280 279 278 277 276 275 275 275 275 274 274 273 273 272 272
286 286 285 284 283 281 281 284 286 286 285 286 287 284 284 285 287 284 279 279 282 284 285 284 285 284 285 284 284 285 285 283 282 283 284 284 283 282 281 279 278 277 276 276 275 275 275 275 274 273 272 272 271 271
282 282 282 283 284 284 284 286 285 285 285 285 285 283 285 286 290 284 278 280 283 284 285 285 285 284 284 284 284 285 285 284 284 284 284 284 283 282 280 278 277 276 276 276 275 275 275 274 274 273 272 271 271 271

GFSWCAN_925_thetae_084.txt.gz
Theta_e
305 305 303 293 298 300 301 301 300 300 304 305 304 303 303 300 301 302 300 301 303 302 299 300 300 304 306 308 311 310 310 310 311 311 310 309 309 308 309 309 309 310 310 311 310 312 309 306 307 310 306 305 306 306
305 305 304 294 296 299 300 300 300 300 305 304 303 303 304 304 302 302 301 301 301 301 299 298 297 297 297 298 300 307 309 310 308 310 309 308 308 307 308 308 307 308 308 308 308 309 306 305 306 304 304 304 305 305
305 305 303 294 296 299 299 300 299 300 305 305 304 304 304 304 304 300 300 301 304 301 300 299 300 297 297 297 297 305 306 305 308 304 308 308 310 306 307 307 308 307 305 306 307 307 306 304 304 303 303 304 303 301
305 305 303 294 296 299 299 299 299 300 305 305 304 304 304 304 304 302 299 300 303 306 307 301 298 299 298 298 298 298 300 303 303 304 308 308 308 305 307 305 305 306 305 306 306 306 304 304 304 302 301 300 300 299
305 305 303 294 296 298 299 299 299 300 305 306 305 305 305 305 304 303 299 298 299 303 306 302 298 298 298 299 300 300 301 303 305 307 307 307 304 304 303 302 303 303 305 305 305 304 304 302 301 301 301 300 300 299
305 304 304 295 296 298 298 299 299 299 302 304 305 305 304 304 304 303 304 300 297 301 304 305 299 299 298 299 300 300 299 301 302 304 305 301 299 301 304 304 305 303 303 301 303 301 300 299 299 299 300 298 296 296
305 304 303 294 296 298 298 299 300 300 300 303 303 303 303 303 303 301 301 297 296 299 303 304 303 298 297 298 300 300 300 299 300 302 302 301 300 299 303 305 304 303 301 299 298 298 300 299 299 297 296 295 295 294
305 304 303 293 296 298 298 301 302 302 302 303 303 299 299 299 300 300 298 297 296 299 301 301 303 299 297 301 302 298 300 300 300 300 298 299 298 298 301 302 299 298 299 298 298 297 297 296 296 295 295 294 293 291
305 304 304 292 297 298 301 302 304 303 302 303 303 300 300 300 301 300 298 297 295 296 300 300 302 303 297 299 299 299 298 301 298 300 299 298 300 300 301 301 299 297 298 298 296 295 295 296 295 294 294 291 290 289
305 304 304 292 297 298 302 303 303 302 303 303 300 299 301 299 298 297 299 299 298 297 296 299 298 300 297 299 301 301 299 301 298 300 296 298 299 301 300 299 298 297 298 296 295 294 294 293 293 292 291 289 289 288
305 305 304 292 297 299 302 302 303 303 302 299 300 299 298 297 297 297 299 299 299 299 298 297 296 296 295 300 302 299 300 298 298 298 298 300 301 300 299 295 295 296 296 296 295 295 293 292 291 289 289 289 289 289
305 305 303 292 297 299 303 302 301 299 299 299 299 297 297 297 297 295 296 296 296 299 295 296 296 296 295 295 300 298 299 296 298 297 298 300 300 297 296 296 295 295 295 292 292 290 290 290 290 289 289 288 288 288
305 305 302 293 297 299 302 302 299 299 297 296 297 295 297 295 296 296 295 296 297 295 294 294 295 295 294 295 297 297 297 297 295 294 299 300 298 296 295 294 294 294 292 291 290 290 290 289 289 288 288 288 287 287
305 305 302 293 298 298 302 302 298 298 297 298 295 294 295 295 296 299 299 299 294 295 294 296 294 296 295 296 297 296 298 296 293 293 298 297 295 294 294 294 294 293 290 288 288 289 288 288 288 287 286 286 286 285
305 304 299 294 298 298 301 302 299 297 296 296 294 295 297 296 293 291 290 291 291 293 294 294 293 295 295 296 296 295 293 290 295 297 297 295 293 293 293 293 293 292 290 289 288 286 287 287 286 286 286 285 285 284
305 301 294 294 298 298 300 301 297 297 295 293 293 293 293 293 292 290 289 292 291 294 291 293 294 293 295 295 294 292 294 295 299 297 293 290 292 292 292 292 292 291 290 289 288 288 287 286 285 286 285 284 284 283
301 297 295 295 298 299 299 297 297 295 297 297 295 294 294 292 295 293 293 293 293 293 295 294 293 294 291 292 294 295 295 297 298 294 290 292 292 291 291 290 290 290 289 288 288 287 286 285 284 284 282 283 283 282
300 297 294 295 298 299 296 297 296 296 298 297 297 294 292 292 293 292 291 292 292 293 292 293 290 290 293 292 294 296 295 291 289 290 290 291 291 290 290 288 289 289 288 288 287 285 284 284 283 284 283 283 282 282
300 297 295 296 298 298 296 295 295 298 298 296 294 290 292 292 291 291 290 291 291 290 289 288 291 291 294 293 295 297 292 290 291 290 289 289 290 290 289 289 288 288 286 284 284 285 285 284 283 282 282 281 281 281
298 296 295 298 298 297 296 295 294 296 296 294 290 292 291 291 289 288 289 290 288 288 288 289 292 294 293 294 293 291 291 292 290 290 289 287 288 288 287 287 287 286 285 284 284 284 283 282 282 282 280 280 280 278
297 296 297 298 298 297 296 294 294 295 294 292 290 292 290 287 288 288 287 288 287 289 291 293 293 293 290 289 289 288 288 290 291 291 290 288 286 287 286 287 286 285 284 284 283 283 284 282 281 280 279 279 278 277
293 295 297 297 292 294 295 294 292 291 289 290 292 289 289 289 290 291 291 291 290 291 291 293 294 293 292 289 290 288 290 291 291 291 291 289 286 284 285 285 285 284 284 284 283 282 282 281 280 279 278 277 277 276
295 294 292 292 293 294 296 292 290 289 290 290 290 289 290 292 291 290 290 289 290 291 293 293 294 291 290 291 289 288 289 290 288 287 289 287 287 287 285 285 285 285 283 282 283 282 281 279 278 278 277 276 275 275
293 292 295 295 297 296 290 290 293 292 291 290 291 289 290 291 285 287 290 288 291 288 292 293 290 284 283 283 284 287 286 289 289 288 288 286 285 285 285 284 285 285 285 283 281 280 279 278 277 276 276 275 275 275
295 295 295 296 294 290 289 290 289 291 289 290 289 289 287 285 288 289 286 287 292 293 293 293 290 290 291 291 290 288 288 288 288 288 285 287 285 283 282 283 283 283 283 281 279 279 277 276 276 276 275 274 275 275
297 295 296 296 290 288 288 288 291 291 288 288 288 285 285 288 289 289 288 291 295 295 294 292 290 289 289 290 292 286 286 288 289 288 285 286 285 285 283 281 280 279 280 281 281 278 277 276 276 275 275 275 275 274
299 297 295 291 290 289 289 289 289 288 288 289 288 287 289 291 288 288 289 291 293 292 295 294 291 290 291 290 290 291 289 287 288 289 287 285 286 286 285 283 282 284 282 281 281 280 278 276 276 275 275 274 274 274
297 291 289 290 287 286 287 287 287 289 288 288 289 289 291 289 290 290 290 289 293 292 292 293 292 291 291 292 290 286 285 285 285 285 284 283 284 285 285 285 285 284 283 282 280 279 278 277 276 276 275 274 274 274
290 291 290 289 284 284 286 287 289 290 291 289 291 291 287 287 285 284 283 286 286 286 283 280 286 290 289 287 285 285 284 282 282 282 284 283 278 278 280 281 282 282 281 280 278 278 277 277 276 275 275 274 274 274
290 291 288 286 286 288 287 288 291 289 287 289 287 285 286 284 282 284 284 282 281 279 284 286 285 285 284 284 282 280 282 284 287 287 286 285 283 281 280 280 280 280 279 278 277 276 277 276 275 274 274 274 274 273
289 285 285 287 287 284 282 282 282 284 280 279 279 282 286 279 281 282 281 282 283 286 285 281 283 286 284 285 283 282 282 283 285 287 287 287 285 283 281 280 280 280 278 278 277 277 276 275 274 274 274 273 273 272
287 288 288 288 285 280 280 282 279 279 278 279 279 277 277 279 282 281 281 280 282 282 285 284 284 285 285 285 284 284 286 284 283 285 287 286 285 284 281 280 280 279 278 277 276 276 275 275 274 274 273 273 273 272
282 279 277 279 280 279 281 280 281 279 278 278 278 278 279 282 286 281 280 280 282 283 284 285 285 286 286 285 285 285 285 285 285 285 286 285 285 283 281 281 279 278 277 277 276 275 275 274 274 274 273 272 272 271

GFSWCAN_925_thetae_087.txt.gz
Theta_e
303 304 305 304 299 293 299 300 301 301 305 304 303 303 304 303 302 302 301 301 302 296 296 298 298 300 303 304 307 306 308 307 307 307 307 306 306 306 307 307 308 308 306 308 306 308 305 305 305 308 304 304 304 305
303 304 305 304 301 294 299 299 300 300 304 304 303 303 304 304 301 302 302 302 301 297 297 298 297 297 297 297 299 303 306 306 305 307 304 303 306 303 304 305 305 304 305 307 305 306 303 302 305 303 302 302 303 303
303 304 305 304 302 294 298 298 299 299 303 304 303 303 303 304 303 300 300 301 303 296 297 298 299 298 298 298 298 304 303 302 304 301 304 305 306 302 305 303 306 304 303 304 304 304 304 303 303 301 302 302 300 299
303 304 305 304 302 293 297 299 299 298 304 305 304 304 304 304 304 301 299 299 302 301 302 300 298 299 298 298 298 298 298 300 300 300 304 304 305 301 303 303 303 302 303 303 303 303 304 303 301 300 300 298 297 297
303 304 305 305 303 292 297 298 298 298 303 304 305 305 304 304 304 303 299 297 299 301 302 299 298 298 298 299 299 299 299 300 301 303 302 304 300 301 299 299 300 300 303 304 303 301 302 302 299 300 298 298 297 296
303 304 305 304 303 293 297 297 298 298 301 302 304 305 304 304 303 303 299 301 298 301 297 300 298 298 298 299 299 299 298 298 298 302 302 298 297 299 300 301 301 300 300 300 302 300 299 298 297 299 298 296 295 294
303 304 305 305 304 293 297 297 298 299 300 301 303 302 301 302 303 301 299 298 297 299 299 300 299 296 297 297 297 297 298 297 298 299 299 299 298 297 299 302 302 301 299 298 297 298 299 298 298 296 294 294 295 293
303 304 305 304 303 294 297 297 299 301 301 301 303 300 299 299 300 301 299 298 297 298 297 299 297 296 296 298 299 295 297 296 297 298 296 297 296 295 299 299 300 299 297 297 297 296 297 295 294 293 293 292 292 290
303 304 304 304 303 294 297 299 301 302 302 302 303 299 299 300 299 300 298 297 296 296 294 295 291 294 294 296 296 297 295 297 295 298 297 297 297 298 300 298 299 296 298 297 295 294 294 295 294 293 293 292 289 288
303 304 304 304 302 295 298 302 303 303 302 303 301 299 297 299 298 297 298 295 293 292 292 294 290 295 294 295 298 297 296 297 294 298 295 297 298 298 299 297 298 296 296 295 294 294 294 293 293 293 291 289 287 287
303 304 304 304 300 296 301 302 303 302 303 299 297 295 298 296 297 293 293 293 294 294 294 293 292 293 293 296 298 297 296 292 293 295 297 297 302 298 296 297 295 294 294 294 295 294 293 292 291 290 288 288 288 288
303 304 305 304 299 297 302 302 303 302 300 299 298 297 296 294 291 291 288 292 293 296 293 292 294 294 293 292 296 295 295 292 293 293 295 297 299 296 294 294 294 294 293 292 293 292 291 290 289 287 287 287 288 288
303 304 305 304 298 298 302 303 302 300 299 297 296 290 292 290 292 291 292 289 290 292 290 290 291 293 292 293 295 294 294 296 292 290 295 295 295 295 294 293 293 292 291 289 289 289 289 288 288 288 287 287 287 286
303 304 305 305 297 298 302 302 301 298 297 293 290 291 292 289 290 292 291 290 291 290 292 292 291 293 293 293 294 292 295 294 289 289 294 293 295 294 292 292 292 291 289 286 287 288 287 287 287 287 287 286 285 285
304 304 305 305 296 297 302 302 299 297 296 291 290 292 291 292 286 284 282 286 287 290 292 292 290 292 291 293 294 292 290 289 290 292 292 290 292 292 292 292 292 290 288 287 287 286 287 286 286 286 286 285 285 284
304 304 302 304 295 297 301 301 297 297 295 290 290 290 291 288 286 285 282 286 286 291 287 290 289 289 292 291 291 291 289 290 291 289 291 288 291 291 292 291 291 291 289 288 287 287 286 285 284 285 285 284 284 283
305 302 301 302 296 298 300 298 297 295 297 297 295 291 289 286 289 289 288 289 290 291 290 289 289 293 289 287 291 291 291 291 292 291 286 289 290 290 290 291 290 290 289 288 288 287 287 286 284 284 282 283 283 282
304 302 301 298 297 299 297 298 297 296 298 297 297 294 292 291 290 290 289 289 290 290 291 290 288 289 289 289 290 291 290 288 286 288 287 289 289 289 290 289 290 289 288 288 287 286 284 283 282 282 283 282 282 281
303 302 298 296 298 297 296 295 295 298 298 296 293 291 291 291 290 289 288 290 288 288 287 285 286 289 291 289 290 288 287 289 291 288 287 288 289 289 289 289 289 288 287 286 285 284 284 284 284 283 282 281 280 280
303 301 298 297 297 294 295 296 295 296 296 295 288 292 292 292 290 289 288 290 288 285 285 288 291 293 290 290 289 289 288 288 288 289 289 287 288 288 287 287 286 287 286 285 285 284 283 282 282 282 281 281 280 278
299 299 297 297 293 293 295 294 294 295 294 293 287 292 291 288 290 290 290 288 285 287 288 291 291 292 289 289 289 290 287 288 288 289 290 286 286 287 286 287 287 285 284 283 284 284 284 282 282 281 280 279 278 277
296 297 297 293 292 292 294 292 291 291 292 289 291 285 287 289 289 290 290 291 290 293 290 294 295 293 293 291 290 288 290 288 290 289 291 290 285 283 285 285 284 284 284 284 284 283 283 282 281 280 279 278 277 276
296 294 292 292 294 295 296 291 291 287 291 291 290 289 287 286 288 289 291 291 290 289 293 294 294 294 292 293 292 292 291 288 288 287 288 289 288 288 287 285 285 285 283 284 285 284 282 281 281 279 278 277 276 276
293 292 295 295 296 296 292 294 292 291 289 291 291 287 286 287 288 289 291 286 287 289 292 294 294 294 283 282 287 291 290 287 288 288 289 286 284 284 286 286 285 285 285 285 283 282 281 280 279 278 277 276 275 275
295 294 295 297 294 289 289 289 289 289 289 288 287 284 287 283 285 282 285 285 286 292 292 292 292 292 293 293 291 290 291 288 287 287 286 287 286 283 283 284 285 285 285 283 281 280 279 278 278 277 276 275 275 275
297 295 296 296 290 290 288 288 289 290 288 287 288 283 279 284 283 288 285 286 292 294 293 292 292 292 290 290 292 291 290 288 288 286 288 286 286 286 284 283 280 281 284 284 282 279 278 277 277 276 275 275 277 276
297 296 294 291 289 288 288 287 288 289 289 289 286 284 285 289 288 287 285 285 289 289 294 293 292 291 292 290 290 290 290 289 288 289 290 287 287 287 286 284 283 284 284 283 283 282 280 278 277 276 276 275 275 275
298 293 294 291 288 286 287 288 288 289 288 287 288 284 289 290 291 288 287 288 292 293 293 293 294 293 291 291 291 289 286 286 286 286 285 284 285 286 286 286 286 286 285 283 283 282 281 280 278 277 276 276 275 275
291 290 291 289 288 288 286 287 288 288 288 289 293 290 288 285 282 282 283 289 289 290 281 279 288 290 290 290 289 288 288 283 280 281 283 280 276 281 284 285 284 284 284 282 282 281 280 279 278 277 276 276 275 275
290 291 288 290 290 291 288 287 287 286 286 289 290 285 284 282 282 286 287 283 281 280 285 286 287 285 282 282 277 280 282 284 286 286 286 285 285 281 282 282 282 282 282 281 280 278 278 277 276 275 275 275 274 274
290 286 284 285 287 281 278 279 281 285 282 280 277 282 283 280 281 285 286 287 287 285 283 279 280 283 282 281 281 280 281 282 284 287 286 287 285 282 282 282 281 281 281 280 278 277 277 276 275 274 274 274 274 273
286 287 287 285 282 278 280 283 284 286 283 284 279 272 276 279 282 283 287 284 280 278 283 284 282 283 284 286 286 286 287 288 288 286 285 286 283 282 282 282 281 281 280 279 278 278 277 276 275 274 274 274 273 272
280 276 277 280 279 281 282 286 286 285 282 276 278 278 278 283 287 285 285 286 286 286 285 285 285 285 287 287 286 286 286 287 286 285 286 287 286 282 282 281 281 280 279 278 277 277 276 275 275 274 274 273 272 272

GFSWCAN_925_thetae_090.txt.gz
Theta_e
304 303 303 304 304 302 295 300 301 301 304 303 303 303 303 301 303 304 301 301 301 296 296 298 298 300 302 303 306 304 306 305 305 306 306 305 305 304 304 304 306 304 304 306 305 307 304 303 304 305 301 303 303 303
304 304 303 304 304 303 294 298 300 299 303 304 303 304 304 302 302 303 302 303 301 298 297 297 298 298 298 298 300 301 304 305 304 305 303 301 305 301 302 303 303 305 303 305 303 304 301 301 303 302 300 301 303 302
304 304 303 304 304 303 293 297 299 299 301 304 303 303 304 303 302 304 302 303 302 296 297 297 298 298 298 298 298 303 301 300 303 299 302 303 305 301 304 302 304 303 301 304 304 301 302 302 302 301 301 301 300 300
304 304 303 304 304 303 296 297 298 299 300 304 304 304 304 303 302 302 301 302 303 300 302 300 298 298 298 298 298 298 298 299 299 298 302 302 305 300 302 301 302 301 301 302 302 301 301 302 300 300 299 298 298 297
305 304 303 304 304 303 301 296 298 299 299 303 304 305 305 303 302 300 299 298 301 303 302 299 297 298 298 298 298 298 298 298 299 301 300 303 299 300 297 297 298 299 302 303 302 300 301 301 299 297 297 297 296 295
305 304 303 303 304 303 302 295 297 298 298 302 302 303 304 302 301 302 298 300 298 302 297 300 297 297 298 298 299 298 297 296 297 300 300 297 296 299 299 299 300 298 298 299 301 299 299 298 297 297 297 296 295 294
305 304 303 303 304 304 302 295 297 297 298 300 302 303 301 300 301 300 299 299 298 300 298 298 296 296 296 296 296 296 296 296 297 298 298 297 297 297 297 300 300 299 298 298 297 297 299 297 298 296 295 294 295 292
306 304 303 303 304 304 303 295 297 297 299 300 302 301 299 299 299 299 298 297 296 299 295 294 295 295 296 296 298 293 296 294 295 297 295 297 295 295 299 298 299 299 298 297 296 296 297 294 293 293 292 291 290 289
306 304 303 303 304 304 302 295 297 299 301 301 302 300 299 299 298 298 297 297 296 296 293 291 293 294 294 295 294 295 294 297 294 297 296 296 298 298 300 299 298 296 297 297 294 294 294 294 293 292 291 291 290 288
306 304 303 303 303 303 302 295 299 301 302 302 302 299 296 299 298 297 297 294 291 291 291 293 289 296 294 294 297 296 294 297 294 297 294 297 298 298 297 296 297 297 295 293 294 293 293 293 292 292 291 289 287 287
307 304 303 303 303 303 300 298 302 303 302 301 297 295 298 296 297 292 293 293 293 294 293 291 291 294 292 296 297 296 291 290 293 294 297 296 298 298 296 294 293 295 293 294 295 295 292 292 292 291 289 287 287 287
307 305 303 303 304 303 298 301 304 302 301 300 299 297 296 293 290 291 288 291 292 295 292 292 293 293 292 292 296 294 294 290 295 290 293 295 294 295 294 293 293 292 292 293 294 293 291 291 291 289 287 287 287 287
307 306 303 303 304 304 298 302 302 300 299 298 295 289 292 288 292 291 291 289 288 290 289 289 291 292 292 293 294 294 295 296 291 288 293 293 292 292 292 292 293 292 291 290 290 290 290 289 289 288 287 287 287 286
307 306 304 303 304 303 298 302 302 299 297 291 290 292 292 288 291 292 291 289 290 289 289 290 290 292 292 293 293 291 295 293 288 289 293 289 291 293 291 291 292 292 289 287 286 287 287 287 287 287 287 287 286 285
306 306 304 303 303 302 299 302 302 297 296 292 289 292 290 290 285 284 282 285 286 289 290 291 289 291 291 293 294 291 290 289 290 292 290 288 292 290 290 291 291 290 288 287 287 286 286 287 286 285 286 285 285 284
306 305 304 303 303 300 299 303 298 297 294 288 290 289 290 289 283 283 281 284 285 290 287 290 288 289 292 292 291 291 289 290 292 287 289 287 292 290 289 290 290 289 287 287 287 287 287 286 285 285 285 284 284 283
305 304 304 303 303 298 300 298 297 298 298 298 295 291 293 291 291 289 288 289 289 291 291 289 289 293 290 288 292 291 290 291 289 288 286 289 290 289 288 289 289 290 289 288 287 287 287 286 285 284 282 283 283 282
305 305 304 303 299 298 297 297 297 297 299 297 297 294 293 293 291 290 288 288 291 290 290 290 287 289 294 294 292 291 290 286 284 287 287 289 288 287 288 289 290 290 290 288 288 287 286 284 282 282 283 283 282 281
305 304 303 300 298 294 293 293 295 299 298 297 290 290 293 293 291 290 289 290 288 289 287 285 287 292 295 292 291 287 284 288 291 288 286 287 288 288 288 290 290 289 288 286 285 285 284 285 284 284 283 282 281 280
305 304 301 298 297 293 293 294 293 296 297 297 290 293 292 293 291 290 289 291 288 284 285 287 292 293 291 290 289 289 287 289 289 289 288 287 287 288 287 287 287 288 286 285 285 285 284 283 283 283 282 281 281 279
303 301 299 297 294 292 294 294 295 296 294 293 288 293 293 289 290 290 291 290 290 287 288 291 294 295 290 289 289 289 289 287 288 289 289 285 286 287 286 287 288 286 284 283 283 283 284 282 283 282 282 281 280 278
301 300 297 292 292 291 294 293 295 293 292 289 291 287 290 291 290 291 290 291 287 294 290 296 296 295 294 290 290 288 291 290 289 288 289 290 286 282 283 284 284 284 284 284 284 284 284 284 283 282 281 279 278 277
298 294 291 292 294 294 295 292 292 290 290 291 290 290 287 287 289 290 293 290 291 291 295 295 295 294 292 294 291 292 291 289 288 287 288 289 289 288 288 286 286 285 284 283 284 284 284 284 282 281 280 278 277 276
293 292 295 295 296 297 292 294 291 290 289 291 291 292 287 286 289 291 293 289 289 288 291 294 294 293 287 282 288 292 293 289 288 290 290 287 286 286 287 286 286 286 287 286 284 283 283 282 281 280 278 277 276 276
295 294 295 296 293 292 293 292 290 289 289 288 288 286 287 287 291 291 289 288 288 293 292 291 290 292 293 293 293 292 292 291 287 288 289 287 288 284 284 285 285 285 286 284 281 281 281 281 280 279 277 276 276 275
298 295 296 297 291 291 289 288 288 287 287 287 287 284 282 287 287 290 288 288 294 295 292 290 291 291 291 291 292 292 291 291 289 286 289 288 286 286 284 283 281 281 284 285 282 280 279 279 278 278 276 277 277 276
297 295 294 291 290 288 288 287 288 289 290 290 286 285 289 293 291 289 287 288 290 290 293 293 291 291 292 290 290 291 291 291 290 288 289 289 288 288 287 285 284 285 285 284 284 283 281 279 278 277 276 276 277 277
297 293 295 290 287 285 287 288 288 290 291 288 290 288 292 293 292 291 290 288 290 292 294 293 293 293 292 292 292 291 288 287 286 286 286 286 286 286 286 287 287 287 287 285 284 284 283 282 280 277 277 276 276 276
294 291 289 286 286 288 289 290 291 291 290 290 293 291 288 287 288 287 285 289 288 289 283 282 290 291 291 290 290 289 289 284 281 280 280 280 275 282 284 285 285 284 283 283 284 284 283 282 280 279 278 277 276 275
290 292 285 287 288 290 288 288 289 287 286 290 290 287 286 285 283 287 286 283 282 283 288 290 290 286 284 282 279 280 284 285 286 285 283 283 281 285 284 283 283 283 282 282 282 281 280 279 278 276 276 275 274 274
288 284 283 284 286 281 279 281 282 286 283 284 282 288 287 280 280 284 286 287 288 287 283 280 278 283 282 279 280 279 281 284 285 285 286 287 287 285 284 283 282 281 281 281 281 279 278 277 276 275 274 274 274 274
285 287 286 286 281 276 279 283 286 288 285 287 286 276 277 280 283 282 288 284 280 277 283 286 282 285 286 287 287 288 289 289 288 285 285 285 285 285 283 282 281 280 280 280 279 278 277 276 275 274 274 274 273 273
283 282 281 283 283 284 282 286 287 285 283 282 283 280 279 283 288 285 288 289 289 289 288 288 289 288 288 289 289 288 287 287 288 287 285 285 287 284 281 281 280 280 280 279 278 277 277 276 275 274 274 274 273 273

GFSWCAN_925_thetae_093.txt.gz
Theta_e
305 303 304 303 304 304 303 296 298 300 303 304 302 303 303 300 302 303 302 303 303 297 296 297 298 300 301 301 306 304 304 304 303 305 306 304 304 303 303 302 305 303 303 305 303 306 303 302 304 304 300 302 303 303
306 304 304 303 303 304 303 296 298 299 301 304 303 303 303 302 300 302 303 303 302 300 298 298 298 299 299 299 300 300 304 303 302 304 301 300 304 300 300 303 300 305 302 302 303 303 299 300 302 301 299 301 302 302
307 304 304 304 303 304 303 299 297 298 299 303 304 303 303 303 299 301 302 302 301 296 296 296 297 298 298 298 299 303 300 300 301 298 301 301 305 300 304 300 302 301 299 303 303 300 299 300 300 301 299 300 300 300
308 305 304 304 303 304 303 302 295 298 299 301 304 304 304 304 301 300 301 301 303 299 301 300 297 297 299 298 298 298 298 298 298 297 300 301 304 299 301 300 300 300 300 302 300 300 299 299 298 300 299 298 298 297
308 307 304 304 303 304 303 303 296 297 298 301 303 304 304 304 302 300 299 299 301 302 301 299 297 298 298 298 298 297 297 297 298 300 299 302 298 298 296 296 297 298 301 302 302 299 299 299 299 297 297 297 296 296
309 307 306 305 303 303 304 303 298 297 298 299 302 303 304 303 302 302 297 300 297 300 296 300 296 296 297 297 297 297 297 295 296 298 299 297 295 299 299 299 298 296 297 298 301 298 298 298 298 296 297 296 295 294
309 308 305 304 303 303 304 303 299 296 297 299 301 303 301 301 301 300 298 298 296 299 296 297 296 295 296 296 295 295 295 294 296 297 297 297 297 297 297 300 300 298 297 297 297 297 300 297 298 295 295 295 296 293
309 309 306 305 303 303 304 303 300 296 297 298 300 302 299 299 299 299 298 297 296 298 294 293 293 295 295 295 297 292 295 293 294 296 295 296 295 295 299 298 297 297 297 297 295 295 297 295 293 293 292 291 291 290
309 309 308 306 304 303 304 303 301 296 298 300 301 301 299 299 298 299 298 297 297 295 293 290 292 294 293 294 294 294 293 296 293 297 296 296 296 297 300 298 298 298 298 298 294 294 294 295 293 292 291 290 290 289
309 308 308 307 304 303 304 304 301 296 300 302 301 299 296 298 298 297 296 294 290 291 290 292 289 295 293 293 296 295 294 296 293 297 294 296 297 297 297 296 295 295 295 293 294 294 294 294 292 291 291 290 290 287
308 308 308 307 304 303 303 303 300 299 302 302 298 295 297 296 296 291 293 293 293 294 293 290 290 293 291 295 296 295 290 290 293 294 297 296 297 295 295 294 292 290 291 293 294 295 293 293 293 291 291 289 287 287
307 307 307 307 304 303 303 303 298 301 302 301 298 296 296 292 289 291 289 290 292 296 291 293 293 292 292 291 296 294 293 290 294 290 293 295 294 293 293 292 291 290 291 292 293 293 291 292 292 291 289 287 287 288
306 306 307 307 305 303 303 302 300 303 301 298 295 290 291 289 291 290 295 289 286 289 289 290 292 292 291 293 293 293 294 296 291 289 294 293 293 292 290 290 291 291 291 291 292 292 291 290 291 290 286 287 287 286
306 306 306 306 305 303 303 300 303 301 299 295 294 293 292 288 291 292 291 289 289 288 290 290 290 293 292 293 293 291 295 293 289 292 294 291 291 291 290 290 291 291 289 287 288 288 287 287 287 288 288 287 286 285
305 305 306 305 305 303 303 300 302 298 296 296 292 295 291 291 285 283 281 285 286 289 289 290 290 291 290 292 294 291 290 290 292 294 292 289 290 291 290 290 290 290 288 286 285 284 284 286 285 286 287 286 286 285
305 304 305 305 305 304 303 300 299 297 295 292 287 289 288 289 291 289 282 284 285 289 286 289 289 290 291 292 291 293 291 292 294 288 289 286 291 290 289 289 289 289 288 287 286 286 286 285 284 285 285 285 284 284
304 305 305 305 304 303 301 299 297 296 296 299 295 290 292 293 296 292 289 289 288 291 290 288 289 293 290 289 293 291 292 292 290 287 284 288 291 290 288 288 289 289 288 287 287 286 286 286 286 284 281 283 283 283
303 304 304 305 303 301 299 294 294 295 298 298 297 293 293 293 293 291 289 289 291 291 289 289 287 288 292 296 296 292 289 286 284 286 287 290 289 288 288 288 289 290 289 288 287 287 286 284 282 282 284 283 282 282
303 304 303 304 301 295 293 291 293 298 298 297 293 289 293 293 292 291 289 291 289 289 288 284 284 290 295 294 294 286 283 287 291 290 288 288 288 288 288 289 289 289 288 288 285 285 285 285 285 284 284 283 281 281
301 302 304 302 299 292 293 294 292 296 298 298 290 291 292 293 291 291 290 291 290 288 285 286 292 295 294 293 289 288 286 288 289 290 290 287 287 287 286 286 287 288 287 287 287 286 285 283 284 284 284 283 281 281
301 302 303 299 295 292 293 294 294 296 294 296 292 292 292 289 291 291 292 291 293 288 288 291 295 296 292 289 289 289 288 288 289 290 292 293 287 287 287 287 288 286 284 284 284 284 285 284 284 284 283 282 282 281
302 302 299 294 292 291 294 292 296 294 294 292 294 292 290 290 291 291 291 292 294 296 291 296 296 295 295 292 292 289 292 291 290 289 290 289 287 283 283 284 283 285 285 286 285 285 285 284 284 284 282 282 281 279
299 295 292 291 294 293 295 292 294 292 293 293 292 293 289 286 288 290 292 292 294 291 295 296 296 296 295 295 293 291 291 288 288 287 288 289 290 289 288 288 286 286 285 285 285 285 284 285 284 282 282 280 279 278
294 292 295 295 295 295 292 294 291 291 289 292 293 295 289 283 288 291 293 290 288 288 294 295 295 295 294 286 292 294 293 290 289 290 291 289 287 287 287 287 287 287 287 287 284 284 284 283 283 281 280 279 278 277
296 294 295 296 294 293 293 291 290 290 289 287 290 291 289 289 291 291 291 287 287 290 293 295 294 295 296 295 295 293 293 292 290 290 291 289 288 287 285 285 286 286 286 285 282 281 281 282 281 279 279 278 277 276
296 295 295 296 292 291 289 287 288 288 286 287 290 286 284 288 288 289 287 288 293 296 295 295 295 293 292 293 294 293 292 292 291 287 290 290 287 286 286 283 282 282 284 286 284 281 280 280 279 278 277 278 278 277
297 296 295 292 289 287 287 286 286 287 289 292 285 284 289 292 290 289 286 289 293 293 295 295 293 293 293 291 291 292 292 292 291 290 291 290 290 289 288 283 283 286 287 285 284 283 281 279 279 279 278 277 278 278
295 295 295 291 287 282 284 284 285 289 290 288 289 287 290 291 292 290 290 290 291 292 294 294 293 292 292 291 292 292 289 289 289 288 287 287 287 287 288 287 287 287 287 286 284 283 282 281 280 279 278 277 277 278
294 290 290 291 287 286 286 287 288 289 289 289 292 290 288 286 286 289 288 288 288 288 281 283 287 290 290 289 289 290 290 287 282 283 283 285 278 285 286 286 286 286 285 283 282 283 284 283 282 281 279 279 278 278
292 290 291 289 290 289 287 287 285 283 285 289 290 286 285 282 284 288 286 282 284 285 289 289 289 286 286 284 285 282 286 287 287 287 286 287 285 288 287 285 285 284 283 282 282 282 282 281 279 277 278 277 276 275
290 290 288 289 288 281 277 276 279 286 280 283 283 289 291 283 284 288 286 287 288 288 285 282 279 285 283 280 281 283 284 287 287 288 288 287 288 288 286 285 284 283 282 281 281 281 280 277 277 276 275 274 274 274
284 288 288 286 282 274 273 278 283 285 280 284 283 276 279 282 285 285 288 284 281 279 285 288 285 287 291 291 290 291 292 291 292 290 287 285 286 287 286 284 283 282 281 281 281 279 278 276 275 275 274 274 274 274
284 284 280 282 284 283 280 282 284 283 282 282 281 281 284 287 289 286 287 288 289 290 289 289 290 291 291 291 291 291 290 289 288 288 288 285 285 286 285 283 282 281 280 280 279 278 277 277 275 275 275 274 274 274

GFSWCAN_925_thetae_096.txt.gz
Theta_e
308 307 305 304 303 303 304 303 299 298 300 303 303 302 303 303 301 302 301 302 300 298 296 296 297 299 299 300 304 303 302 302 302 304 305 304 303 301 302 300 304 302 301 303 302 305 303 301 303 303 300 301 302 302
308 307 306 304 304 303 304 303 302 296 299 301 303 303 303 303 300 302 301 302 301 299 298 298 299 300 300 301 300 299 302 303 302 302 300 300 303 298 299 303 298 302 301 300 302 302 299 299 301 300 298 300 301 301
309 308 306 304 304 303 303 303 303 296 297 299 303 304 303 303 301 299 301 301 301 296 296 297 297 299 299 299 299 302 299 299 300 297 299 300 304 300 303 299 300 299 297 301 303 300 299 298 299 299 298 299 300 299
309 308 308 305 304 304 303 304 303 300 296 298 302 304 304 304 303 299 299 300 302 298 301 299 297 298 298 298 298 298 298 298 296 296 299 301 303 298 300 299 298 299 298 300 299 299 298 297 296 298 298 298 298 298
310 308 308 307 305 304 303 304 303 302 296 297 301 302 304 304 304 302 301 297 299 301 300 298 296 297 297 297 297 297 297 296 297 298 297 301 298 298 296 295 297 297 300 301 302 299 299 298 298 296 298 297 297 296
310 310 309 308 306 305 303 303 303 303 296 297 298 301 302 303 302 302 297 300 296 300 295 299 296 296 296 296 296 296 296 295 295 297 298 296 295 299 299 299 298 296 296 297 300 298 296 297 297 296 297 297 295 295
309 309 309 308 307 305 303 303 304 303 297 296 298 301 302 299 299 301 298 298 296 298 296 297 295 295 295 295 294 293 294 293 295 295 296 296 296 297 297 300 300 297 296 295 294 297 299 297 299 295 296 295 297 294
308 308 308 308 308 305 303 303 304 303 297 296 298 301 301 299 298 299 300 299 297 297 294 290 293 294 294 295 296 291 294 292 294 296 294 296 294 294 299 299 297 297 296 295 295 293 296 295 294 294 293 292 292 291
306 307 308 308 308 306 304 303 304 303 296 297 300 301 300 299 297 298 297 297 297 295 292 290 292 295 292 293 293 293 292 296 293 296 295 295 296 298 301 299 298 297 298 298 295 293 293 294 294 292 291 291 291 290
304 306 307 307 307 307 305 303 304 301 296 300 301 299 296 298 298 297 296 293 290 290 289 291 288 293 292 293 295 295 293 296 293 297 293 296 298 297 297 296 295 295 294 293 295 294 293 294 292 291 291 290 290 289
305 305 306 307 307 307 306 303 304 297 300 301 298 295 298 296 296 292 293 293 293 293 292 291 290 292 291 294 297 295 291 291 293 294 296 295 297 295 295 294 293 292 290 291 293 295 293 293 292 291 290 289 289 288
305 305 306 306 306 306 306 303 303 299 301 301 299 297 295 292 290 292 290 290 292 295 291 291 292 292 292 291 295 293 294 290 295 289 294 297 295 294 294 293 292 290 289 289 290 292 292 292 292 290 290 289 288 288
304 305 305 306 306 306 306 303 303 299 301 300 295 293 293 291 292 295 296 293 288 290 288 290 291 291 291 292 293 292 293 297 290 289 294 294 293 292 291 290 290 290 290 291 291 292 292 292 291 291 288 289 288 287
301 304 304 305 306 305 305 303 302 300 301 296 296 297 295 290 293 295 295 295 292 289 290 289 289 291 292 293 293 292 295 292 288 294 295 292 291 291 290 289 290 293 291 287 287 289 288 288 287 290 290 288 287 285
300 302 303 305 305 305 305 304 301 300 297 297 294 297 293 292 286 286 285 289 288 289 290 291 289 291 290 292 293 291 291 291 291 294 294 290 290 290 291 289 289 290 289 288 286 283 282 286 285 285 287 287 287 286
299 302 303 304 304 305 305 303 299 298 294 294 292 290 289 288 287 286 286 289 288 290 288 290 289 289 292 291 291 292 292 293 294 289 290 286 290 290 289 289 289 289 288 287 287 287 286 285 284 285 286 286 286 285
299 302 303 304 304 305 303 299 293 293 295 297 297 291 290 290 294 293 291 291 289 292 294 290 291 295 289 286 291 293 294 293 291 288 284 287 291 290 288 288 289 289 288 288 287 286 286 286 285 284 281 284 284 284
300 301 303 304 304 304 298 293 293 295 297 297 298 294 291 292 293 291 290 289 292 292 292 290 286 287 290 293 296 296 291 286 284 286 287 288 288 288 288 288 289 290 289 289 288 287 286 284 282 283 284 285 283 283
299 300 301 303 303 297 293 291 292 296 297 297 296 289 290 292 292 292 291 291 290 290 289 284 284 288 293 294 297 296 286 286 291 290 288 288 289 288 288 288 289 288 288 288 286 285 285 285 285 285 284 283 281 282
300 300 301 301 301 294 294 294 291 295 298 298 295 292 288 290 291 291 291 291 291 293 293 288 290 292 293 295 293 294 290 287 288 290 290 288 287 287 286 287 287 289 288 288 287 287 285 284 284 285 284 283 281 281
298 299 299 300 297 294 293 293 293 296 296 297 293 294 292 286 289 292 292 292 293 293 291 291 292 295 293 292 291 290 290 288 289 290 292 291 290 287 287 288 288 286 285 285 285 286 288 285 286 284 284 283 284 283
298 298 299 297 293 292 293 292 295 294 294 294 294 295 292 291 289 292 292 293 295 299 294 295 296 296 296 295 294 290 292 290 290 289 291 291 290 286 286 286 284 285 286 287 287 286 287 287 285 284 283 284 283 282
298 298 294 292 295 293 295 292 295 293 295 294 293 296 291 288 286 291 294 292 295 292 298 297 296 296 296 297 294 293 292 291 291 289 290 290 290 290 289 289 288 287 287 287 287 286 286 286 285 283 283 282 282 280
296 293 294 295 295 295 292 294 292 291 291 293 295 296 289 288 289 291 293 293 295 288 294 296 296 296 296 295 295 296 295 292 290 291 292 290 290 290 288 288 288 287 288 288 287 286 285 284 284 282 281 280 279 278
295 295 295 296 294 289 291 290 288 291 291 287 290 293 288 288 292 293 293 287 290 291 294 295 296 297 297 298 297 296 296 294 291 291 292 290 290 289 287 288 287 287 287 286 284 284 282 282 283 280 279 279 278 277
297 295 295 294 291 291 289 287 287 286 285 285 290 285 284 290 291 292 287 289 295 295 295 295 296 296 296 295 296 296 295 293 292 291 292 291 289 289 289 288 286 285 287 286 285 282 281 281 280 279 279 279 280 277
296 297 291 290 289 286 286 284 284 284 284 287 285 286 290 294 293 290 285 286 295 296 297 297 295 294 295 295 293 294 294 294 292 291 292 292 291 291 289 287 285 288 289 287 285 284 282 280 280 279 278 278 280 279
290 290 294 292 289 281 283 282 283 285 286 285 286 285 290 292 294 289 288 288 290 292 295 295 295 295 294 294 293 292 291 291 290 289 289 289 289 289 289 289 288 288 287 287 286 284 283 282 280 279 278 278 279 279
293 292 290 291 286 286 288 286 286 286 287 287 289 287 287 285 284 286 288 290 288 288 283 285 287 290 290 290 291 291 291 286 284 284 286 288 283 287 290 288 287 286 286 286 284 284 284 283 281 280 280 280 279 279
292 292 290 282 289 290 288 285 281 279 283 287 287 286 285 282 283 292 290 285 280 284 287 288 287 286 286 285 283 282 286 288 288 289 290 290 287 290 290 288 287 286 285 285 283 282 282 281 281 278 279 278 278 277
289 288 281 284 285 280 278 274 275 285 279 279 280 288 294 284 282 291 290 290 288 287 284 280 280 285 285 285 284 285 285 288 289 289 289 290 290 290 289 288 287 285 284 283 282 282 281 278 277 277 277 276 276 276
288 291 286 282 281 273 271 277 279 284 281 280 282 274 279 281 286 287 295 288 281 281 286 288 286 288 290 291 290 292 296 296 294 292 289 287 287 287 288 287 285 284 283 282 281 281 279 277 276 276 276 276 275 275
287 282 274 278 280 281 277 281 282 286 283 284 282 280 282 290 294 292 290 292 292 292 290 289 291 292 293 293 292 293 293 293 291 290 290 290 288 287 287 285 284 283 282 281 280 279 278 277 276 276 276 275 275 275

GFSWCAN_925_thetae_099.txt.gz
Theta_e
309 309 308 306 304 304 303 303 303 301 297 301 303 302 303 303 300 301 302 301 301 297 296 295 298 299 299 299 303 300 301 300 301 304 304 303 303 300 302 300 301 301 300 302 301 304 303 300 303 303 300 300 301 301
310 309 308 307 305 303 303 303 303 303 296 298 302 303 303 303 303 300 302 301 300 298 298 298 299 300 300 301 299 298 300 301 300 301 300 300 304 296 297 302 297 301 300 299 301 301 298 298 301 299 296 300 300 300
309 309 309 308 306 304 304 303 303 303 300 296 299 303 304 303 303 301 299 300 300 295 297 296 297 298 299 299 300 302 298 298 299 296 298 299 303 299 302 298 300 298 296 300 302 300 298 298 297 297 297 298 299 299
307 309 309 309 308 304 304 304 303 303 303 296 298 302 303 304 304 303 300 299 301 297 299 299 297 297 297 298 298 299 298 297 296 295 299 300 302 298 299 298 297 298 297 299 298 298 298 297 295 296 296 297 298 298
306 308 309 309 309 307 305 304 303 303 302 298 297 300 302 303 303 303 302 300 298 300 299 298 296 296 296 296 297 297 297 295 296 298 297 300 297 297 295 294 295 295 298 300 301 298 298 297 297 297 295 297 296 297
305 307 309 309 309 308 306 305 303 303 303 301 296 298 301 302 303 302 297 299 297 299 294 299 295 295 295 295 296 295 295 294 294 297 297 295 294 298 299 298 297 295 295 296 299 297 295 295 295 296 297 296 296 295
303 305 307 308 308 308 308 305 303 303 303 302 296 298 301 301 300 300 299 298 296 297 295 296 296 294 295 294 292 292 293 292 294 295 295 295 296 297 297 302 301 297 296 295 294 296 297 296 298 296 296 296 297 295
303 303 305 307 307 308 308 306 304 303 303 301 296 298 301 301 299 299 299 299 297 297 294 291 293 293 294 294 295 290 293 292 293 295 293 295 294 294 299 300 298 297 296 295 294 292 295 295 295 295 293 292 292 292
303 303 303 304 305 307 307 307 304 303 303 298 297 300 301 300 297 297 297 297 296 295 293 291 293 294 291 292 292 293 292 295 292 296 295 295 296 299 301 299 298 297 297 298 296 294 292 292 294 293 292 292 293 291
301 302 304 304 305 307 307 307 305 303 302 298 300 300 296 297 297 296 295 293 290 290 290 292 288 291 292 292 295 294 293 295 292 296 292 296 298 297 297 296 296 296 295 294 296 293 293 293 292 292 291 291 291 290
297 300 303 304 304 306 307 306 305 303 298 301 298 297 297 296 295 291 293 293 293 294 293 291 291 293 291 294 296 295 290 292 292 293 295 296 297 296 294 294 293 293 292 291 291 292 294 293 293 291 291 290 290 289
296 297 301 304 304 305 306 306 305 301 299 300 298 296 295 293 290 292 290 290 292 296 291 291 291 292 291 291 295 293 294 291 295 289 296 298 295 294 292 294 294 290 290 290 289 289 290 292 292 291 290 289 290 290
295 296 299 302 305 304 306 306 305 301 300 300 296 294 294 292 292 295 298 292 290 291 288 290 292 292 290 292 293 293 296 298 289 287 293 293 293 292 291 290 290 290 290 290 291 290 291 292 292 291 289 291 291 288
297 297 298 300 303 303 305 305 303 300 299 296 297 298 295 290 292 295 295 294 292 289 290 290 289 292 292 294 293 294 295 292 290 295 294 291 291 292 289 289 289 292 292 287 286 289 290 289 289 290 291 290 288 286
296 297 298 299 301 303 302 305 302 300 297 297 296 300 295 292 286 285 285 289 288 290 291 290 289 291 291 293 293 291 291 292 293 295 292 290 290 289 290 289 289 290 290 289 288 285 283 286 286 287 290 289 288 287
296 297 298 297 298 302 303 304 300 297 294 294 295 291 288 285 285 284 285 292 289 292 290 291 290 290 293 292 292 293 293 294 295 290 290 286 288 288 289 288 288 289 289 289 288 288 288 286 285 286 287 287 287 287
296 298 298 300 302 303 303 300 294 292 295 296 296 292 288 286 288 289 291 292 290 293 296 294 295 297 290 287 290 292 294 297 293 290 285 286 289 289 288 288 288 289 289 289 289 288 288 289 287 284 282 285 286 286
297 297 298 300 301 302 299 296 293 294 296 296 299 295 290 291 291 291 291 290 293 293 293 295 291 292 293 291 292 295 294 292 285 287 287 287 287 287 288 288 289 289 289 289 289 289 287 284 283 284 285 286 284 284
296 296 296 298 300 301 294 292 291 296 295 295 296 289 289 290 291 292 291 291 290 290 290 290 293 290 292 291 295 297 294 290 292 289 288 288 288 288 288 288 289 288 288 288 288 287 286 286 286 285 285 284 283 282
295 295 296 298 299 295 295 293 291 294 298 295 295 292 289 292 291 291 291 292 292 293 294 295 293 291 291 294 293 295 293 290 290 291 291 289 287 288 288 289 287 289 288 288 288 288 286 285 285 285 285 283 282 282
294 295 295 297 298 296 295 293 293 293 295 296 293 294 293 285 287 292 293 293 294 295 294 295 296 295 292 291 293 293 293 289 290 292 293 291 289 288 289 288 288 288 285 286 286 286 289 286 288 286 284 284 284 284
295 295 296 297 295 293 293 293 295 293 295 294 294 294 289 289 289 291 292 294 294 298 297 298 298 296 295 296 297 295 294 292 291 290 292 292 291 287 286 288 285 286 285 287 287 287 287 288 289 287 285 284 284 283
295 295 296 293 296 295 291 292 295 293 295 295 294 297 294 288 286 290 294 293 295 297 298 298 297 296 296 297 297 297 295 291 293 293 291 291 292 292 292 291 288 287 288 288 288 287 287 288 288 286 284 284 282 281
295 294 294 295 296 292 292 292 292 293 293 294 294 293 289 284 289 292 294 291 297 294 296 297 297 297 297 296 296 297 297 294 293 294 294 290 289 290 290 290 290 289 289 290 289 287 287 286 286 286 282 281 280 280
295 294 294 296 290 291 291 290 286 290 289 283 290 290 287 287 292 293 289 289 297 295 296 296 296 297 298 298 298 297 297 296 295 295 293 291 292 292 290 290 289 289 289 287 284 285 285 285 284 283 281 280 279 278
296 295 294 292 289 291 289 287 289 285 284 283 289 285 285 291 292 293 288 294 296 296 296 296 296 296 297 296 297 297 297 295 294 293 294 293 291 291 292 288 287 286 289 288 286 284 283 282 282 281 280 280 281 278
296 295 292 290 291 288 287 283 283 283 284 289 283 286 290 293 292 290 285 285 293 292 296 297 296 296 296 297 296 296 296 296 294 293 295 294 293 292 291 288 287 290 291 289 287 286 283 281 281 280 279 279 281 278
290 288 291 290 289 283 283 282 283 284 285 283 285 284 289 291 293 289 287 288 292 292 291 293 296 296 296 296 295 294 293 293 292 291 290 290 290 290 290 290 289 289 289 289 288 286 285 284 281 280 279 278 279 280
293 291 288 291 286 288 288 285 284 284 285 284 287 286 286 284 282 282 284 293 290 288 282 285 290 291 292 292 292 292 292 288 284 285 287 290 284 288 291 290 289 288 287 287 287 286 285 284 283 281 280 279 280 280
290 288 288 284 289 291 287 284 281 278 281 284 285 284 284 286 285 292 291 289 283 287 289 290 290 286 288 286 287 285 287 287 288 290 289 290 291 293 292 291 290 287 286 286 285 283 283 282 281 278 278 278 277 277
288 292 288 284 284 281 280 273 273 284 277 277 276 284 292 291 285 293 292 291 291 291 284 285 283 285 287 287 287 289 289 288 289 289 290 291 292 292 292 291 290 288 286 285 284 283 282 279 277 276 276 276 277 277
288 290 286 284 282 272 269 274 275 278 275 277 286 276 276 279 285 293 295 291 284 286 288 290 290 291 289 291 292 292 293 295 294 292 290 290 289 290 290 290 288 286 285 283 282 282 280 278 276 275 276 276 276 276
286 286 280 277 276 280 277 277 277 278 274 274 280 288 291 288 290 292 293 294 293 292 292 292 291 292 292 292 292 293 293 292 293 293 293 293 292 289 288 288 286 285 283 282 281 280 279 278 277 276 276 276 276 276

GFSWCAN_925_thetae_102.txt.gz
Theta_e
309 310 310 309 308 306 304 303 303 303 303 296 301 303 303 303 302 301 301 301 302 304 304 299 301 304 304 305 308 304 306 305 306 308 308 307 308 306 306 306 305 306 307 308 308 310 310 304 305 307 306 301 305 306
308 308 310 310 309 307 304 304 303 303 303 300 298 303 304 303 303 300 301 300 301 302 304 299 299 300 301 303 306 303 305 306 306 307 306 306 308 304 304 306 300 305 305 306 307 308 303 305 307 306 302 305 305 306
305 306 308 309 309 309 306 304 304 303 303 302 296 300 304 304 303 302 299 300 300 301 303 300 302 298 299 299 301 307 304 303 304 301 305 306 308 305 308 306 305 303 301 304 306 306 304 303 304 303 303 304 304 303
303 305 306 309 309 309 309 306 305 304 303 303 300 298 302 303 303 303 301 300 301 300 305 305 298 298 298 297 298 299 300 298 300 301 306 307 308 304 306 305 303 305 301 304 304 304 304 304 302 302 302 301 301 301
302 303 305 307 309 309 309 308 305 304 303 303 302 297 300 301 302 303 302 301 299 302 306 305 297 295 296 296 297 297 298 300 303 305 305 307 304 303 303 301 304 303 304 305 306 305 305 304 300 300 301 301 300 301
301 302 303 305 308 308 309 308 307 305 303 303 302 298 298 301 302 301 301 299 297 299 302 305 297 296 294 295 296 296 297 299 301 304 305 303 299 303 308 308 306 302 302 304 305 301 301 300 299 299 300 301 300 300
300 302 302 303 305 307 308 308 308 305 303 303 302 299 297 301 300 300 301 297 296 297 300 303 304 296 295 295 295 296 295 299 300 302 302 302 302 302 306 308 306 304 302 302 300 299 301 300 302 299 299 299 299 298
298 300 302 303 303 305 306 307 307 306 304 303 302 297 298 301 301 300 299 299 298 297 296 302 302 297 294 298 299 294 298 297 298 301 298 301 299 301 305 306 304 301 300 300 299 298 300 297 297 298 297 297 298 298
297 298 300 302 303 303 304 306 307 307 304 303 299 297 300 301 298 297 296 296 296 296 301 298 303 306 294 296 297 296 296 302 297 301 300 299 303 302 305 305 304 302 301 302 298 297 297 296 297 297 296 297 298 298
296 296 297 300 302 303 303 305 307 307 304 301 298 300 300 297 296 296 295 296 296 296 294 298 295 300 297 297 299 300 297 302 303 302 296 299 303 302 302 301 300 301 299 298 298 299 297 296 297 297 296 297 297 297
295 295 296 297 300 303 303 304 306 305 301 299 299 298 297 296 295 294 298 298 297 299 297 296 296 299 294 301 302 299 301 299 303 301 301 303 302 301 299 297 297 297 298 298 298 298 297 297 297 296 295 295 295 295
294 295 295 296 298 301 303 304 305 304 300 300 298 297 295 294 295 298 298 295 296 301 296 296 295 296 295 294 301 296 301 296 302 294 298 301 301 299 297 296 295 294 294 294 293 293 293 294 294 295 294 295 294 293
294 294 295 296 297 299 303 304 305 303 300 298 297 296 297 297 297 299 299 299 298 296 293 293 296 296 293 294 297 298 300 300 294 297 300 301 299 295 294 293 293 292 292 293 293 292 292 292 293 293 293 292 293 291
293 294 295 295 296 297 301 303 304 300 299 296 297 300 299 299 296 298 299 301 297 294 293 294 294 296 295 298 297 300 299 296 299 299 301 302 298 297 294 292 292 293 293 292 292 292 292 292 292 292 292 292 291 290
293 293 293 295 295 296 297 302 302 301 297 296 297 302 300 297 293 292 292 292 291 293 294 295 294 295 296 298 295 295 295 298 299 303 303 301 296 293 291 291 292 293 293 293 292 291 291 290 290 291 291 291 290 289
293 294 295 294 294 296 298 298 301 299 295 296 295 300 293 294 294 290 290 294 291 294 293 295 296 297 299 297 296 298 298 300 302 298 299 294 293 292 292 291 291 291 293 293 292 291 292 290 290 290 290 289 289 288
294 295 295 295 297 299 300 301 297 293 294 295 297 296 295 293 298 294 292 294 292 295 299 297 298 301 293 296 296 296 298 300 300 298 293 291 293 293 292 291 290 290 292 292 291 291 290 290 289 287 288 288 287 287
295 295 294 296 298 297 298 298 294 294 296 296 298 298 294 295 295 293 292 292 294 296 296 298 294 296 298 298 298 298 296 297 295 294 293 292 290 290 290 291 290 290 291 291 291 291 289 287 287 288 288 288 287 286
295 294 294 294 296 297 294 293 293 296 296 295 296 293 294 293 292 293 292 293 293 293 293 292 296 297 298 296 297 299 298 297 299 295 292 291 290 290 290 290 290 290 290 290 290 290 291 290 290 289 287 286 286 285
294 294 294 293 295 296 295 294 291 294 296 297 296 295 295 294 292 292 292 293 292 295 295 295 297 299 295 296 294 296 297 297 295 296 297 297 292 289 290 290 291 291 290 290 289 290 289 288 287 288 286 286 285 285
294 294 293 293 295 296 295 295 292 292 295 297 296 295 297 291 293 293 294 293 295 296 297 297 299 300 298 295 294 293 294 294 294 297 301 302 300 291 293 292 291 291 290 290 290 290 290 290 290 289 287 287 285 286
294 294 294 294 294 294 293 293 295 293 295 295 295 295 296 294 293 293 294 294 296 298 296 299 300 300 299 298 298 297 297 296 294 294 295 296 295 292 291 291 291 292 291 291 291 290 291 290 289 289 287 286 286 284
294 293 293 294 295 296 294 292 295 294 296 295 295 296 296 292 289 291 295 295 296 297 298 298 298 298 298 299 298 297 297 297 298 297 296 294 294 294 294 294 295 293 293 293 291 291 290 289 288 288 286 285 284 283
293 293 294 294 294 295 293 294 293 294 294 294 296 295 292 292 289 293 296 293 296 297 297 297 297 297 298 297 298 298 298 297 297 296 297 297 297 295 293 293 293 293 291 292 291 289 288 287 287 287 284 283 282 282
293 293 293 295 293 293 292 292 293 293 294 289 292 292 290 288 293 294 292 292 296 297 297 297 296 297 298 298 298 298 298 298 298 298 298 296 295 295 295 294 292 291 291 289 288 287 286 287 286 285 283 283 282 282
293 292 293 294 290 290 290 293 291 288 285 289 290 286 288 292 293 293 291 295 297 297 296 296 296 296 296 296 297 297 298 297 296 297 297 296 294 294 294 294 294 291 291 290 289 287 286 284 284 284 283 283 284 281
291 290 293 290 290 288 288 284 284 284 285 288 285 289 291 294 292 291 289 288 293 293 294 296 296 296 296 296 296 296 296 296 296 296 296 296 295 294 293 293 293 292 293 290 288 287 286 284 283 283 283 281 282 280
291 290 293 291 290 285 286 285 285 284 286 285 287 289 293 293 295 292 290 290 293 294 291 290 292 293 294 295 296 295 295 294 293 292 291 291 291 292 292 292 292 291 291 291 290 288 287 286 284 283 281 281 281 280
290 289 288 291 288 287 289 286 286 286 286 287 291 291 288 286 286 286 289 294 293 288 286 292 294 292 292 294 294 294 291 289 289 291 292 293 292 291 292 291 290 289 289 289 288 288 287 286 285 283 282 281 280 280
287 287 292 287 291 291 288 286 284 282 283 286 287 286 285 286 287 294 292 291 286 292 294 294 294 292 291 290 292 292 291 290 289 292 294 294 294 293 293 292 289 288 288 287 286 285 284 283 282 279 279 278 277 276
284 290 289 290 290 291 289 278 276 283 278 280 279 285 292 291 287 293 293 292 292 293 293 292 291 292 287 289 290 292 292 291 292 292 291 292 292 292 293 292 291 289 287 286 285 284 283 280 278 277 276 276 277 277
287 289 288 288 287 274 270 280 280 284 281 280 287 280 279 281 287 293 294 293 290 291 291 291 291 292 293 291 290 291 293 294 295 294 293 291 290 291 292 291 290 288 285 284 283 283 282 279 277 276 276 276 276 276
289 286 280 276 277 280 279 278 279 280 276 276 280 285 290 291 292 293 291 293 294 292 292 292 292 292 292 292 291 291 291 292 293 293 293 293 292 290 290 290 289 287 284 283 282 282 280 278 277 276 276 276 276 276

GFSWCAN_925_thetae_105.txt.gz
Theta_e
308 308 309 310 310 309 307 304 304 303 303 303 297 300 304 303 303 300 302 301 304 309 308 303 305 307 307 308 308 308 309 309 309 310 308 309 309 308 307 308 307 308 309 310 310 312 312 308 307 307 308 305 308 308
306 306 307 309 309 310 309 306 304 304 303 303 302 296 302 304 303 302 303 300 301 303 307 301 303 303 305 306 308 308 309 308 309 309 308 308 308 308 306 306 305 307 307 308 309 310 307 307 309 308 305 307 307 308
306 304 304 307 309 310 310 309 306 304 304 303 303 298 298 303 303 303 301 299 301 304 307 303 304 301 299 300 303 308 308 307 307 306 308 308 309 308 308 308 307 306 306 306 306 307 307 306 306 306 307 306 306 306
303 302 302 305 307 309 310 309 308 305 304 303 303 302 297 300 301 302 302 302 300 303 307 307 299 299 298 298 299 302 304 302 304 306 309 309 308 307 307 307 307 307 304 305 306 306 306 306 306 305 304 304 303 303
300 301 302 303 305 307 308 309 309 308 305 304 303 302 298 297 299 302 302 301 301 302 307 306 302 298 296 297 298 299 301 304 306 307 308 309 308 307 307 306 307 307 306 306 307 306 307 306 303 303 303 304 303 303
299 300 301 302 303 305 307 308 308 308 307 304 303 302 300 297 300 301 304 299 297 298 303 306 300 298 296 297 298 299 301 303 305 307 308 308 305 306 308 308 308 307 307 306 306 304 304 304 302 302 302 303 303 302
298 299 299 301 302 303 305 307 308 308 308 305 303 303 299 297 300 302 304 299 296 296 301 306 307 298 297 297 298 299 299 302 303 305 306 306 305 304 308 308 308 308 307 306 305 304 302 302 303 302 301 301 301 301
297 298 298 301 302 303 303 304 306 307 307 306 303 303 299 298 300 301 300 301 299 299 299 306 307 300 297 301 302 298 301 301 302 304 303 304 304 304 308 307 307 307 306 305 304 303 303 302 300 300 300 300 300 300
295 296 297 298 300 302 303 303 304 306 307 305 303 301 298 300 301 299 297 297 297 298 305 303 306 311 296 299 299 298 300 303 301 302 303 303 305 306 307 306 306 307 306 305 302 303 301 300 300 300 299 299 299 301
295 295 296 296 298 300 302 303 304 306 306 304 301 299 300 298 297 296 296 298 298 299 298 301 301 304 300 300 302 302 300 304 304 304 300 301 303 304 305 305 305 305 304 303 301 300 300 299 299 299 298 299 299 299
294 294 295 296 296 298 302 303 303 305 302 301 299 299 297 296 296 297 301 301 302 301 301 300 301 304 297 303 304 302 305 303 305 305 302 306 306 304 302 302 302 303 301 301 301 301 300 300 299 299 298 297 297 297
293 293 294 295 296 296 298 302 303 304 301 301 299 297 296 296 298 300 302 299 299 303 302 300 299 299 298 297 302 300 303 300 304 298 301 303 305 303 301 299 298 297 297 298 298 297 296 295 296 296 297 297 296 296
293 293 293 293 294 295 296 301 303 303 301 299 297 296 298 300 300 302 301 302 302 301 297 296 299 299 296 297 301 301 302 302 297 300 303 304 304 301 298 296 296 294 294 294 295 295 295 294 294 294 295 295 295 295
293 292 292 293 294 294 295 296 301 300 299 297 298 301 301 304 300 303 303 306 302 299 297 299 299 300 299 300 301 302 302 299 303 302 304 307 304 301 299 296 294 295 295 294 294 295 294 293 294 294 294 294 294 294
294 293 293 293 292 293 294 296 298 301 298 297 297 303 301 301 300 299 298 296 294 296 296 297 298 298 300 301 299 300 299 301 303 306 308 307 299 297 295 293 294 294 296 295 295 293 292 293 292 293 293 293 292 292
293 294 295 292 291 293 295 298 298 299 296 296 296 299 298 299 302 296 296 298 295 296 296 298 299 299 301 300 300 301 303 304 309 305 304 300 298 296 295 293 293 293 294 294 294 294 294 294 293 293 293 292 291 291
294 295 294 293 294 297 297 299 298 295 296 296 298 298 301 303 303 304 299 298 295 297 301 300 301 301 296 300 300 301 303 306 306 305 301 297 296 297 295 293 292 291 292 294 293 293 293 293 291 290 291 292 291 290
295 295 294 293 294 296 296 297 296 295 297 297 298 300 298 300 302 302 296 295 296 298 299 302 299 298 301 302 303 302 300 300 299 299 298 297 295 294 292 293 292 292 292 292 293 293 292 291 290 291 292 291 290 288
295 294 293 293 294 295 294 294 294 299 298 299 298 298 298 298 298 298 298 295 296 296 297 297 301 300 302 302 303 304 302 301 300 301 297 295 294 294 294 292 292 291 291 291 292 292 292 292 292 292 292 290 288 288
294 294 294 293 293 294 296 295 292 295 299 298 297 299 298 299 299 297 297 295 295 295 298 298 300 302 301 303 302 301 301 301 301 300 299 299 296 294 293 293 293 295 293 292 292 292 291 291 291 291 291 290 288 288
294 294 294 294 294 293 294 295 294 294 297 297 298 297 298 295 296 296 296 295 295 297 299 299 299 300 300 301 301 301 298 297 298 298 299 299 299 296 297 297 296 295 295 295 297 296 293 291 293 292 291 290 289 289
294 293 293 293 293 293 294 294 296 295 294 297 296 296 299 297 297 296 296 296 296 298 298 299 300 300 300 300 300 300 300 298 298 298 298 297 297 297 297 298 295 295 295 294 294 293 293 293 292 291 290 290 289 288
293 293 292 292 294 294 294 293 295 296 296 297 296 298 298 298 295 294 297 297 298 297 298 298 298 298 299 299 299 299 299 298 299 299 299 299 299 299 298 297 296 296 296 295 295 294 294 294 293 291 289 288 287 286
293 292 294 294 293 293 294 294 295 296 296 296 297 297 297 297 292 294 298 298 298 297 297 297 298 298 298 297 298 298 298 298 298 298 298 298 298 298 298 298 297 295 295 295 295 294 293 291 290 289 288 286 285 285
294 294 294 294 293 293 294 294 295 296 296 295 296 297 294 291 294 296 296 297 297 297 297 297 298 298 298 298 298 298 298 298 298 298 298 298 298 298 297 296 297 297 295 293 292 292 291 289 288 288 286 286 285 284
293 292 293 292 293 294 293 293 294 294 295 294 294 294 291 294 296 297 297 297 297 297 298 298 298 298 298 297 297 298 298 298 297 297 297 298 298 297 297 297 297 296 295 293 292 292 291 289 288 287 286 286 286 284
292 293 293 293 293 292 292 289 289 291 291 292 294 291 292 294 296 296 296 295 296 297 297 297 297 297 297 297 297 297 297 297 296 296 297 296 296 296 296 296 295 295 295 294 292 290 290 288 287 286 286 285 285 284
293 292 291 292 291 291 292 292 291 291 291 291 290 292 294 296 296 296 295 295 295 295 295 294 294 294 295 295 296 295 295 295 295 294 294 293 294 294 293 293 293 294 293 292 291 288 288 288 286 286 285 284 284 284
292 292 292 291 290 289 291 292 293 292 291 289 292 294 293 293 295 295 294 294 296 292 290 292 294 293 292 291 292 292 293 293 291 293 295 296 296 296 296 293 290 291 291 290 291 289 287 287 286 285 285 284 283 282
291 292 291 290 290 291 292 290 291 292 290 291 292 292 291 292 293 293 293 292 290 291 292 294 295 294 294 294 294 294 293 291 291 292 295 296 297 299 297 295 290 288 289 289 288 287 285 285 284 282 281 280 279 279
291 291 291 291 291 291 292 289 284 285 285 287 287 290 293 294 294 293 293 293 293 293 293 293 294 294 293 293 293 293 293 293 292 292 292 293 296 297 296 294 292 289 288 288 287 286 285 283 281 279 279 278 278 278
289 290 291 290 291 290 279 283 287 287 291 290 289 288 288 289 291 293 294 293 292 292 293 293 292 293 293 293 292 292 292 292 292 292 293 291 291 293 293 292 291 288 287 286 286 285 284 282 280 279 278 278 278 277
289 290 289 290 291 289 286 284 285 287 287 287 290 291 292 293 293 293 293 293 293 293 293 293 293 293 292 292 292 292 292 292 292 292 292 292 292 292 291 290 290 289 287 285 285 284 282 281 279 278 278 278 277 277

GFSWCAN_925_thetae_108.txt.gz
Theta_e
309 308 307 308 309 309 309 309 305 305 304 303 302 297 302 303 303 303 303 301 302 306 306 304 305 307 307 306 306 307 308 308 308 308 307 307 307 306 305 305 306 307 307 307 307 309 308 305 306 305 304 305 307 307
308 307 306 305 308 309 309 309 308 305 305 304 303 301 297 302 303 303 303 301 300 301 305 305 303 304 304 303 306 307 308 307 307 307 306 305 306 304 304 303 304 304 304 305 306 307 305 304 305 304 303 304 306 306
307 306 304 303 306 308 309 309 309 308 305 305 303 303 298 298 300 302 302 301 302 303 305 303 304 302 302 302 302 306 306 305 306 303 306 306 307 305 305 304 305 303 302 302 304 303 303 303 304 303 304 303 303 304
305 303 302 302 304 306 308 308 309 309 308 305 304 302 302 297 298 299 302 302 301 303 305 305 300 300 299 299 300 301 302 303 304 304 306 306 307 304 304 303 304 303 303 303 302 303 303 303 302 302 302 302 302 301
301 300 301 302 303 305 306 307 308 308 309 307 305 303 302 300 297 300 302 301 300 301 304 304 303 297 297 298 299 299 300 302 303 305 304 306 304 305 304 303 306 303 304 304 304 302 302 303 303 302 302 302 301 301
299 299 299 300 302 303 304 305 307 308 309 308 306 304 303 301 297 302 303 299 297 298 301 303 299 298 297 298 299 299 300 301 302 305 304 305 303 304 303 303 304 303 304 303 303 302 302 302 301 301 301 300 301 301
297 298 298 298 299 301 302 303 305 307 307 308 306 304 303 301 298 302 303 299 297 297 300 302 303 297 297 298 298 298 299 299 300 302 303 303 303 302 303 306 305 303 303 303 302 304 303 301 301 299 299 300 300 300
296 297 297 297 300 302 302 302 303 304 306 307 306 304 303 300 298 300 300 300 301 299 299 301 302 298 297 299 299 298 299 299 299 300 301 302 301 301 305 304 304 303 303 302 303 302 301 300 300 300 299 298 298 298
295 295 296 296 297 299 301 302 303 303 305 306 305 303 300 299 300 299 297 297 298 298 301 300 302 306 295 298 298 297 298 301 299 301 301 300 301 304 303 303 303 303 304 304 301 300 300 299 298 298 298 297 297 296
294 295 295 296 296 297 300 302 302 303 305 305 303 300 299 299 298 297 297 297 296 298 296 299 299 301 297 298 300 300 298 301 303 301 298 301 302 301 302 301 301 301 302 302 301 299 298 297 297 297 297 296 296 296
294 294 294 295 295 295 298 301 302 303 303 302 299 299 298 297 296 297 299 300 300 301 298 298 297 299 296 300 301 300 299 301 303 299 299 300 303 302 301 298 296 296 298 300 299 298 299 299 298 297 296 295 295 295
293 293 294 294 294 295 296 300 302 302 302 301 300 297 296 296 298 299 301 298 299 300 299 298 296 296 296 295 298 298 300 299 301 295 299 300 300 301 298 296 296 295 294 294 295 297 297 296 294 294 294 295 295 295
292 292 293 293 293 293 295 297 300 302 301 299 297 296 298 299 301 302 301 300 300 298 295 294 295 296 294 295 298 298 298 300 295 294 298 298 299 299 297 295 294 293 291 291 292 294 294 294 294 294 293 294 295 295
293 293 293 292 292 293 293 295 298 300 300 298 299 302 300 301 300 300 300 300 297 296 296 297 296 299 298 299 300 300 300 297 296 300 298 298 301 296 294 293 293 292 293 290 288 291 292 290 291 293 294 294 294 293
293 293 293 293 292 291 292 295 298 299 299 298 297 300 300 297 296 295 293 293 291 295 294 294 294 296 297 300 298 299 298 297 296 298 298 298 297 295 293 292 291 291 291 293 293 292 288 292 291 291 294 293 293 293
294 294 294 293 292 292 292 295 297 298 297 296 296 297 298 297 297 293 292 293 291 294 292 294 296 297 298 298 300 296 298 297 297 299 299 298 296 295 295 292 291 291 290 291 292 293 293 293 293 292 294 293 292 292
294 294 293 293 293 294 296 297 297 295 297 297 296 297 297 295 296 296 295 295 294 294 295 295 300 300 297 300 297 296 296 298 300 297 297 298 296 294 294 293 291 290 290 290 292 293 293 294 293 291 289 292 292 293
294 294 294 293 294 294 295 296 294 295 297 296 296 296 296 296 296 298 294 293 293 295 298 300 298 300 300 299 297 297 296 295 294 296 295 294 294 294 292 292 292 291 291 291 291 292 293 292 288 290 291 292 292 293
294 294 294 293 293 293 294 294 293 295 296 293 293 292 294 295 294 296 295 294 294 296 297 297 300 299 297 296 300 301 300 294 299 299 295 295 295 294 293 294 293 291 291 290 290 290 291 292 293 293 292 293 291 295
294 294 294 294 293 293 294 294 293 294 293 292 291 292 292 293 294 293 294 293 293 294 296 297 298 299 298 299 297 298 297 296 296 297 298 298 297 296 292 292 293 293 292 292 292 293 291 291 292 292 292 292 291 291
293 293 294 294 294 293 293 294 294 294 294 294 290 291 292 291 293 294 293 290 295 296 297 295 297 297 297 298 299 298 298 298 299 298 298 297 297 297 297 296 295 294 293 294 295 295 297 295 296 295 293 292 292 292
293 293 294 294 293 291 292 292 293 292 293 294 295 295 295 296 295 296 295 296 296 296 294 296 297 297 297 297 297 297 298 298 298 297 298 298 297 297 296 296 295 295 295 296 295 295 295 295 295 294 292 291 291 291
293 293 293 292 293 293 291 292 292 289 290 287 293 294 294 291 293 293 296 295 296 294 295 295 296 296 295 297 297 296 297 296 296 296 296 297 297 297 297 297 297 296 296 296 296 294 294 294 294 294 293 291 289 289
292 292 293 293 293 294 292 293 292 289 288 290 287 291 288 291 292 294 295 294 294 294 294 295 294 295 295 295 295 295 296 296 295 296 296 296 295 296 296 296 297 297 297 296 295 294 294 294 294 293 292 289 288 287
291 292 292 293 293 293 293 291 290 288 288 287 288 289 288 286 294 294 294 293 294 294 293 292 294 294 295 295 295 295 296 296 296 296 296 297 296 296 296 296 296 296 296 295 293 292 292 292 292 290 289 288 287 286
291 288 291 292 293 292 289 285 286 287 290 286 289 287 284 291 294 295 290 293 294 293 293 294 294 294 294 295 295 296 296 296 297 294 296 296 296 296 296 295 295 295 296 296 295 294 293 292 290 289 288 288 288 287
291 288 288 289 289 289 288 286 286 286 285 287 285 286 288 293 292 292 293 293 293 292 294 295 295 295 295 295 296 297 297 297 297 296 296 296 296 297 296 295 295 296 296 296 296 294 292 291 290 288 288 287 287 287
288 287 288 289 289 287 287 286 285 286 286 287 288 288 292 293 294 292 290 294 295 295 295 295 295 295 295 295 295 295 295 296 296 295 294 294 294 294 294 293 293 295 294 293 294 294 292 290 289 288 287 286 285 286
288 289 290 288 286 285 289 288 289 288 289 288 290 291 291 291 292 292 292 293 294 294 290 292 293 293 293 292 292 292 292 292 289 290 290 291 291 292 293 294 295 295 293 292 292 292 291 289 288 288 287 286 285 285
288 288 289 287 287 287 290 288 288 290 290 290 290 291 291 291 291 292 292 292 290 288 291 292 292 292 292 293 293 293 293 292 291 290 291 291 291 292 293 294 295 295 292 290 290 289 287 287 286 284 283 283 283 282
286 289 285 289 290 290 290 290 286 288 285 288 289 289 290 290 291 292 291 292 292 292 291 290 292 292 292 292 292 292 292 293 293 293 292 291 291 291 291 292 293 293 290 289 288 288 286 284 283 282 281 280 280 280
286 289 289 289 290 290 283 280 281 285 289 288 288 289 288 284 288 289 290 290 290 290 291 292 291 292 292 292 292 292 292 292 292 292 292 292 291 292 291 291 291 292 290 288 287 287 287 285 283 281 280 280 280 279
281 281 282 286 288 289 282 283 282 284 288 289 289 289 289 289 289 288 291 292 291 291 291 292 292 292 292 292 292 292 292 292 292 292 292 292 292 292 292 291 290 290 288 287 286 286 285 284 283 281 280 280 279 278

GFSWCAN_925_thetae_111.txt.gz
Theta_e
310 309 308 307 307 307 309 308 309 306 305 304 303 301 297 301 303 302 303 301 301 300 300 304 304 305 304 303 303 303 303 304 305 305 304 303 304 303 304 303 304 305 304 306 305 308 308 303 305 303 301 304 305 305
309 309 308 306 304 306 308 308 308 308 307 306 304 303 300 297 299 302 302 302 301 299 299 304 304 304 304 304 304 303 302 304 304 304 302 301 303 301 301 301 301 303 304 305 306 307 303 302 302 302 301 302 304 305
309 308 307 304 303 306 307 308 308 308 309 307 305 303 303 298 297 298 302 302 301 299 299 302 302 302 301 302 303 302 301 303 304 301 302 303 306 301 303 300 302 302 300 301 303 301 302 303 302 301 301 301 302 302
308 307 305 302 302 304 306 307 307 307 308 308 307 305 303 302 297 297 301 302 301 300 301 301 300 300 299 299 300 301 302 302 302 300 303 303 304 301 301 302 300 301 302 301 300 302 301 301 300 299 300 299 300 300
307 305 301 301 302 302 304 305 306 307 308 308 308 305 304 303 299 298 301 300 300 300 301 300 300 297 297 298 298 299 300 300 300 301 301 303 301 303 301 300 304 302 304 303 304 303 300 300 300 301 302 301 300 300
302 300 300 300 300 300 301 303 304 306 307 308 308 307 304 303 301 301 300 298 297 299 297 299 298 297 297 298 298 298 298 298 299 300 300 300 301 303 301 301 301 301 302 303 303 301 299 299 300 301 301 300 300 300
299 298 298 298 298 299 300 302 302 304 306 307 308 307 305 303 302 300 302 299 298 298 297 298 298 296 297 297 296 296 297 297 298 299 299 300 301 302 300 302 303 301 300 300 299 299 300 300 301 299 298 298 300 300
297 297 297 297 298 300 301 302 302 302 303 305 307 307 305 303 300 300 299 299 299 299 297 297 300 298 296 297 298 295 297 297 296 297 299 302 299 298 302 302 301 301 300 300 300 298 299 300 300 299 299 297 298 297
296 296 296 296 297 298 300 301 302 302 303 304 306 305 303 299 299 299 298 297 298 298 299 300 300 301 295 297 296 295 296 300 296 300 300 298 299 302 302 302 301 300 300 301 300 299 299 299 298 297 297 296 296 296
295 295 295 295 296 296 298 300 302 302 304 305 303 301 300 299 298 297 297 295 292 295 292 297 294 299 296 297 299 298 297 300 302 300 296 301 301 300 300 300 299 299 297 296 298 299 299 297 296 296 296 295 295 294
294 294 294 294 295 296 296 300 301 302 302 302 300 299 298 297 296 295 298 299 299 301 297 297 294 295 294 297 298 298 295 301 301 301 300 300 300 300 299 298 296 294 293 293 295 295 296 296 296 296 295 295 293 294
293 293 293 293 294 295 295 300 301 302 302 301 300 297 296 295 297 300 300 298 299 301 295 296 295 294 294 293 296 296 296 298 300 293 298 299 297 297 297 295 294 292 292 291 291 291 291 292 292 292 292 292 293 295
292 293 293 293 293 293 295 297 300 301 301 300 298 297 298 298 300 301 298 299 298 294 291 291 293 294 293 294 296 296 299 298 292 290 295 295 295 296 295 292 292 290 289 290 290 292 293 292 292 292 291 293 293 294
293 293 293 293 292 292 293 294 296 300 300 298 299 300 299 298 300 297 295 293 294 293 292 294 293 294 294 295 296 295 297 296 292 297 296 294 296 297 293 291 289 290 290 289 287 291 291 289 290 292 293 293 293 293
292 293 293 293 292 292 293 294 298 298 299 294 297 300 299 296 287 287 291 290 289 293 293 292 292 294 292 296 298 296 295 294 293 296 296 294 297 295 294 292 290 290 290 290 291 290 287 290 289 291 294 294 293 293
293 293 293 292 292 293 293 293 297 297 297 296 297 297 297 297 297 290 284 288 288 291 289 291 294 294 296 295 299 295 291 292 295 293 294 293 296 295 294 293 292 291 290 290 290 291 292 292 291 293 294 294 293 293
293 293 292 293 294 293 294 296 296 293 294 295 296 295 294 286 288 289 291 292 291 291 292 293 298 296 295 297 297 293 292 296 294 293 290 295 295 295 293 292 292 292 291 291 291 291 291 293 293 291 290 294 293 293
294 293 293 293 294 295 295 295 293 294 296 295 294 288 293 293 291 293 292 289 290 290 291 293 292 298 294 293 294 293 292 292 291 294 294 292 292 292 293 292 294 293 292 292 292 292 291 290 288 290 292 293 292 292
294 293 292 293 294 294 292 292 292 293 293 291 288 287 290 292 290 293 292 291 292 291 294 297 299 298 297 294 296 297 297 295 298 298 296 294 295 294 295 295 294 292 291 292 292 291 291 291 291 292 292 292 291 291
293 293 293 293 293 293 293 292 292 292 291 287 284 285 289 289 290 290 292 291 291 292 297 298 298 297 293 294 292 295 297 296 293 296 298 298 297 295 293 293 294 295 293 292 291 292 291 290 292 292 292 292 292 292
293 293 293 293 293 293 291 290 293 292 292 291 285 285 288 285 284 284 286 287 294 296 296 296 296 296 295 296 296 296 295 294 295 297 297 297 297 297 297 296 296 294 291 294 293 293 294 293 295 295 295 293 293 293
292 292 293 293 292 292 291 291 289 290 291 290 290 292 293 288 285 285 286 294 296 295 295 295 295 295 295 295 295 296 296 296 296 295 296 296 296 296 296 296 294 294 294 295 295 295 295 296 295 295 294 293 293 292
292 292 292 292 293 293 292 291 292 291 291 285 290 290 286 287 284 285 291 290 292 293 294 294 294 295 294 295 295 295 295 295 293 294 295 295 295 295 295 295 295 294 294 295 295 295 294 295 295 295 294 293 292 290
292 292 292 292 292 293 289 292 289 281 277 281 278 281 279 282 281 288 287 292 292 291 291 292 291 293 293 293 293 294 295 295 294 294 294 294 294 294 295 295 295 295 295 295 295 294 294 294 294 293 293 291 290 289
292 292 291 291 289 292 292 290 288 288 289 283 282 281 282 279 282 279 285 291 292 292 292 292 291 292 293 294 294 294 294 294 290 292 294 295 295 295 294 294 294 295 295 295 294 294 294 292 292 292 291 290 289 288
290 288 289 285 281 287 287 286 285 286 283 279 283 282 275 282 285 290 287 291 291 291 292 292 291 292 292 292 293 293 293 294 295 295 295 296 294 293 293 293 294 294 295 296 295 293 293 293 292 290 289 289 290 290
290 287 283 286 286 286 285 283 284 284 287 288 282 280 283 288 287 288 290 290 289 291 292 292 291 292 292 292 293 294 294 295 295 296 296 296 296 295 295 294 294 294 294 294 295 294 293 292 291 290 289 289 289 288
287 284 285 285 287 282 283 281 282 284 287 285 284 284 285 287 290 290 288 291 292 293 292 292 292 293 292 293 293 293 293 294 293 293 293 293 293 294 294 293 293 292 292 292 292 292 291 291 292 291 290 289 288 288
286 285 285 282 282 278 284 285 287 287 289 287 288 289 290 290 290 290 291 291 291 291 288 290 291 292 292 292 291 291 290 290 285 289 290 291 292 292 292 292 291 291 292 293 293 291 291 292 292 291 289 288 288 286
288 286 285 285 284 285 288 285 287 289 289 288 289 289 289 289 290 290 290 290 288 287 289 289 290 291 291 291 291 291 292 291 290 289 291 292 292 292 292 292 292 291 292 291 292 291 291 290 289 287 286 285 284 284
283 287 285 288 289 289 288 289 288 288 288 288 288 288 289 289 290 290 290 290 290 290 290 290 290 290 290 290 290 290 291 291 291 291 292 291 291 291 291 292 292 291 291 291 291 289 288 287 285 284 283 283 283 282
283 286 288 286 289 289 281 277 276 280 288 288 288 288 288 288 288 289 289 289 289 289 289 290 289 289 290 290 291 291 291 291 291 292 292 291 291 291 291 291 291 291 290 290 289 288 287 286 284 283 283 282 282 281
276 274 284 285 285 283 286 285 281 280 287 288 288 289 289 289 289 289 290 289 289 289 289 289 289 289 290 290 290 290 290 291 291 291 291 291 291 291 291 291 290 290 289 288 287 287 286 285 284 283 283 282 282 281